KC5DAQ-22 Weather Reports


time (UTC)temp
C
wind
direction
speed
KPH
gust
KPH
rain 1hr
cm
rain 24hr
cm
rain mn
cm
humidity
%
barometer
mb
20260507135202 17 3 6.4 19.3 0.00 0.00 0.00 88 1014.0
20260507135102 17 54 8.0 19.3 0.00 0.00 0.00 88 1014.1
20260507135001 17 0 9.7 24.1 0.00 0.00 0.00 88 1014.1
20260507134901 17 1 9.7 24.1 0.00 0.00 0.00 88 1014.0
20260507134804 17 6 9.7 24.1 0.00 0.00 0.00 88 1014.1
20260507134702 17 3 9.7 24.1 0.00 0.00 0.00 88 1014.1
20260507134602 17 1 8.0 24.1 0.00 0.00 0.00 88 1014.1
20260507134504 17 0 9.7 24.1 0.00 0.00 0.00 89 1014.1
20260507134404 17 0 11.3 24.1 0.00 0.00 0.00 88 1014.2
20260507134302 17 0 12.9 24.1 0.00 0.00 0.00 88 1014.1
20260507134202 17 0 12.9 24.1 0.00 0.00 0.00 88 1014.3
20260507134102 17 1 14.5 24.1 0.00 0.00 0.00 88 1014.3
20260507134003 17 55 12.9 24.1 0.00 0.00 0.00 88 1014.3
20260507133903 17 3 12.9 24.1 0.00 0.00 0.00 88 1014.2
20260507133804 17 3 14.5 24.1 0.00 0.00 0.00 88 1014.3
20260507133702 17 0 14.5 24.1 0.00 0.00 0.00 88 1014.3
20260507133603 17 0 8.0 24.1 0.00 0.00 0.00 88 1014.2
20260507133502 17 1 6.4 24.1 0.00 0.00 0.00 88 1014.2
20260507133404 17 0 8.0 24.1 0.00 0.00 0.00 89 1014.2
20260507133302 17 0 8.0 24.1 0.00 0.00 0.00 89 1014.1
20260507133202 17 4 9.7 24.1 0.00 0.00 0.00 89 1014.1
20260507133102 17 1 12.9 24.1 0.00 0.00 0.00 88 1014.1
20260507133003 17 3 11.3 24.1 0.00 0.00 0.00 89 1014.0
20260507132901 17 0 11.3 24.1 0.00 0.00 0.00 89 1014.1
20260507132802 17 0 14.5 24.1 0.00 0.00 0.00 89 1014.1
20260507132703 17 4 14.5 24.1 0.00 0.00 0.00 89 1014.2
20260507132602 17 6 12.9 20.9 0.00 0.00 0.00 89 1014.2
20260507132502 17 3 12.9 20.9 0.00 0.00 0.00 89 1014.2
20260507132403 17 8 12.9 20.9 0.00 0.00 0.00 88 1014.3
20260507132306 17 7 11.3 20.9 0.00 0.00 0.00 89 1014.3
20260507132203 17 1 8.0 20.9 0.00 0.00 0.00 89 1014.4
20260507132104 17 0 8.0 20.9 0.00 0.00 0.00 89 1014.4
20260507132003 17 0 11.3 20.9 0.00 0.00 0.00 89 1014.5
20260507131903 17 4 12.9 20.9 0.00 0.00 0.00 89 1014.4
20260507131803 17 0 11.3 17.7 0.00 0.00 0.00 89 1014.5
20260507131704 17 0 11.3 17.7 0.00 0.00 0.00 89 1014.5
20260507131606 17 0 9.7 16.1 0.00 0.00 0.00 89 1014.4
20260507131503 17 0 6.4 17.7 0.00 0.00 0.00 89 1014.3
20260507131403 17 0 4.8 17.7 0.00 0.00 0.00 89 1014.2
20260507131302 17 4 6.4 20.9 0.00 0.00 0.00 89 1014.3
20260507131203 17 1 6.4 20.9 0.00 0.00 0.00 89 1014.2
20260507131103 17 0 6.4 20.9 0.00 0.00 0.00 89 1014.2
20260507131004 17 4 6.4 20.9 0.00 0.00 0.00 89 1014.2
20260507130902 17 52 8.0 20.9 0.00 0.00 0.00 89 1014.3
20260507130802 17 0 9.7 20.9 0.00 0.00 0.00 89 1014.2
20260507130704 17 52 11.3 22.5 0.00 0.00 0.00 89 1014.2
20260507130602 17 52 12.9 22.5 0.00 0.00 0.00 89 1014.3
20260507130504 17 0 12.9 22.5 0.00 0.00 0.00 89 1014.1
20260507130403 17 0 11.3 22.5 0.00 0.00 0.00 89 1014.2
20260507130303 17 1 11.3 22.5 0.00 0.00 0.00 89 1014.2
20260507130202 17 4 12.9 22.5 0.00 0.00 0.00 89 1014.2
20260507130103 17 3 11.3 22.5 0.00 0.00 0.00 89 1014.3
20260507125955 17 0 9.7 22.5 0.00 0.00 0.00 88 1014.3
20260507125851 17 0 11.3 22.5 0.00 0.00 0.00 88 1014.3
20260507125750 17 49 11.3 22.5 0.00 0.00 0.00 89 1014.3
20260507125648 17 51 11.3 22.5 0.00 0.00 0.00 88 1014.3
20260507125545 17 4 8.0 22.5 0.00 0.00 0.00 88 1014.3
20260507125445 17 49 6.4 22.5 0.00 0.00 0.00 89 1014.3
20260507125344 17 1 6.4 22.5 0.00 0.00 0.00 89 1014.2
20260507125242 17 48 9.7 22.5 0.00 0.00 0.00 89 1014.1
20260507125140 17 49 11.3 22.5 0.00 0.00 0.00 88 1014.0
20260507125038 17 51 11.3 22.5 0.00 0.00 0.00 88 1013.9
20260507124939 17 3 12.9 22.5 0.00 0.00 0.00 88 1013.8
20260507124837 17 3 14.5 22.5 0.00 0.00 0.00 88 1013.7
20260507124735 17 0 12.9 20.9 0.00 0.00 0.00 89 1013.7
20260507124632 17 51 11.3 20.9 0.00 0.00 0.00 89 1013.6
20260507124532 17 49 8.0 17.7 0.00 0.00 0.00 89 1013.6
20260507124431 17 51 8.0 17.7 0.00 0.00 0.00 89 1013.5
20260507124332 17 49 8.0 17.7 0.00 0.00 0.00 89 1013.6
20260507124232 17 1 6.4 17.7 0.00 0.00 0.00 89 1013.5
20260507124131 17 51 8.0 17.7 0.00 0.00 0.00 89 1013.5
20260507124031 17 49 9.7 17.7 0.00 0.00 0.00 89 1013.6
20260507123931 17 47 9.7 19.3 0.00 0.00 0.00 89 1013.5
20260507123831 17 49 11.3 19.3 0.00 0.00 0.00 89 1013.5
20260507123731 17 51 11.3 19.3 0.00 0.00 0.00 89 1013.4
20260507123631 17 3 11.3 19.3 0.00 0.00 0.00 89 1013.5
20260507123532 17 0 9.7 19.3 0.00 0.00 0.00 89 1013.5
20260507123431 17 3 9.7 19.3 0.00 0.00 0.00 89 1013.5
20260507123326 17 0 9.7 19.3 0.00 0.00 0.00 89 1013.4
20260507123224 17 0 9.7 19.3 0.00 0.00 0.00 89 1013.5
20260507123122 17 0 9.7 19.3 0.00 0.00 0.00 89 1013.5
20260507123022 17 48 11.3 19.3 0.00 0.00 0.00 89 1013.6
20260507122918 17 48 11.3 17.7 0.00 0.00 0.00 89 1013.6
20260507122816 17 47 9.7 16.1 0.00 0.00 0.00 89 1013.6
20260507122716 17 44 8.0 16.1 0.00 0.00 0.00 89 1013.5
20260507122613 17 0 9.7 16.1 0.00 0.00 0.00 89 1013.4
20260507122511 17 48 9.7 16.1 0.00 0.00 0.00 89 1013.2
20260507122410 17 0 9.7 16.1 0.00 0.00 0.00 89 1013.2
20260507122309 17 0 8.0 16.1 0.00 0.00 0.00 89 1013.1
20260507122207 17 4 9.7 16.1 0.00 0.00 0.00 89 1013.1
20260507122107 17 3 12.9 16.1 0.00 0.00 0.00 89 1013.1
20260507122007 17 0 9.7 17.7 0.00 0.00 0.00 89 1013.1
20260507121907 17 4 8.0 20.9 0.00 0.00 0.00 89 1013.2
20260507121807 17 48 6.4 20.9 0.00 0.00 0.00 89 1013.2
20260507121706 17 0 6.4 20.9 0.00 0.00 0.00 89 1013.3
20260507121606 17 49 8.0 24.1 0.00 0.00 0.00 89 1013.3
20260507121507 17 48 8.0 24.1 0.00 0.00 0.00 89 1013.4
20260507121406 17 0 6.4 24.1 0.00 0.00 0.00 89 1013.4
20260507121308 17 0 6.4 24.1 0.00 0.00 0.00 89 1013.3
20260507121207 17 0 8.0 24.1 0.00 0.00 0.00 89 1013.3
20260507121106 17 49 11.3 24.1 0.00 0.00 0.00 89 1013.3
20260507121007 17 0 11.3 24.1 0.00 0.00 0.00 89 1013.1
20260507120908 17 1 12.9 24.1 0.00 0.00 0.00 89 1013.1
20260507120808 17 0 14.5 24.1 0.00 0.00 0.00 89 1013.0
20260507120707 17 49 11.3 24.1 0.00 0.00 0.00 89 1013.0
20260507120607 17 7 9.7 20.9 0.00 0.00 0.00 89 1013.0
20260507120508 17 6 11.3 20.9 0.00 0.00 0.00 89 1013.0
20260507120406 18 3 11.3 20.9 0.00 0.00 0.00 89 1013.0
20260507120307 18 51 9.7 20.9 0.00 0.00 0.00 89 1013.1
20260507120207 18 10 9.7 20.9 0.00 0.00 0.00 89 1013.1
20260507120108 18 3 8.0 20.9 0.00 0.00 0.00 89 1013.1
20260507120006 18 49 6.4 20.9 0.00 0.00 0.00 89 1013.1
20260507115906 18 48 8.0 20.9 0.00 0.00 0.00 89 1013.1
20260507115808 18 48 11.3 20.9 0.00 0.00 0.00 89 1013.0
20260507115707 18 48 11.3 20.9 0.00 0.00 0.00 89 1013.1
20260507115606 18 51 11.3 19.3 0.00 0.00 0.00 89 1013.1
20260507115506 18 49 9.7 19.3 0.00 0.00 0.00 89 1013.0
20260507115407 18 48 8.0 19.3 0.00 0.00 0.00 89 1012.9
20260507115307 18 0 8.0 19.3 0.00 0.00 0.00 89 1012.9
20260507115206 18 1 8.0 19.3 0.00 0.00 0.00 89 1012.8
20260507115107 18 48 8.0 19.3 0.00 0.00 0.00 89 1012.8
20260507115005 18 0 9.7 19.3 0.00 0.00 0.00 89 1012.8
20260507114906 18 0 11.3 19.3 0.00 0.00 0.00 89 1012.7
20260507114808 18 48 9.7 19.3 0.00 0.00 0.00 89 1012.7
20260507114706 18 1 6.4 20.9 0.00 0.00 0.00 89 1012.7
20260507114606 18 51 6.4 20.9 0.00 0.00 0.00 89 1012.7
20260507114505 18 0 6.4 20.9 0.00 0.00 0.00 89 1012.5
20260507114408 18 0 9.7 20.9 0.00 0.00 0.00 89 1012.5
20260507114306 18 1 9.7 20.9 0.00 0.00 0.00 89 1012.4
20260507114205 18 3 9.7 20.9 0.00 0.00 0.00 89 1012.5
20260507114107 18 1 8.0 20.9 0.00 0.00 0.00 89 1012.5
20260507114007 18 49 9.7 20.9 0.00 0.00 0.00 89 1012.6
20260507113905 18 52 11.3 20.9 0.00 0.00 0.00 89 1012.6
20260507113805 18 1 12.9 20.9 0.00 0.00 0.00 89 1012.4
20260507113706 18 4 9.7 16.1 0.00 0.00 0.00 89 1012.4
20260507113605 18 3 8.0 16.1 0.00 0.00 0.00 89 1012.3
20260507113505 18 0 8.0 17.7 0.00 0.00 0.00 89 1012.3
20260507113405 18 1 8.0 17.7 0.00 0.00 0.00 89 1012.3
20260507113306 18 0 6.4 17.7 0.00 0.00 0.00 89 1012.4
20260507113205 18 0 4.8 17.7 0.00 0.00 0.00 89 1012.4
20260507113105 18 4 6.4 17.7 0.00 0.00 0.00 89 1012.3
20260507113006 18 3 9.7 17.7 0.00 0.00 0.00 89 1012.4
20260507112905 18 1 9.7 17.7 0.00 0.00 0.00 89 1012.4
20260507112806 18 1 8.0 17.7 0.00 0.00 0.00 89 1012.4
20260507112705 18 51 9.7 17.7 0.00 0.00 0.00 89 1012.4
20260507112605 18 0 11.3 17.7 0.00 0.00 0.00 89 1012.4
20260507112505 18 3 9.7 17.7 0.00 0.00 0.00 89 1012.3
20260507112405 18 47 8.0 16.1 0.00 0.00 0.00 89 1012.2
20260507112308 18 4 8.0 14.5 0.00 0.00 0.00 90 1012.2
20260507112206 18 0 8.0 14.5 0.00 0.00 0.00 90 1012.1
20260507112106 18 0 6.4 14.5 0.00 0.00 0.00 90 1012.0
20260507112006 18 51 6.4 14.5 0.00 0.00 0.00 90 1012.1
20260507111905 18 0 6.4 14.5 0.00 0.00 0.00 90 1012.1
20260507111805 18 0 6.4 14.5 0.00 0.00 0.00 90 1012.2
20260507111705 18 0 6.4 14.5 0.00 0.00 0.00 90 1012.2
20260507111606 18 0 6.4 14.5 0.00 0.00 0.00 90 1012.2
20260507111506 18 0 6.4 14.5 0.00 0.00 0.00 90 1012.2
20260507111405 18 1 8.0 14.5 0.00 0.00 0.00 90 1012.1
20260507111306 18 1 8.0 14.5 0.00 0.00 0.00 90 1012.1
20260507111205 18 3 6.4 14.5 0.00 0.00 0.00 90 1012.0
20260507111105 18 0 6.4 11.3 0.00 0.00 0.00 90 1012.0
20260507111004 18 3 8.0 11.3 0.00 0.00 0.00 90 1011.9
20260507110906 18 4 6.4 11.3 0.00 0.00 0.00 90 1011.8
20260507110805 18 3 4.8 8.0 0.00 0.00 0.00 90 1011.8
20260507110705 18 6 4.8 8.0 0.00 0.00 0.00 90 1011.9
20260507110606 18 49 4.8 8.0 0.00 0.00 0.00 90 1011.9
20260507110504 18 4 6.4 8.0 0.00 0.00 0.00 90 1011.9
20260507110406 18 3 4.8 8.0 0.00 0.00 0.00 90 1012.0
20260507110306 18 0 3.2 8.0 0.00 0.00 0.00 90 1012.0
20260507110207 18 52 3.2 8.0 0.00 0.00 0.00 90 1012.0
20260507110105 18 0 3.2 8.0 0.00 0.00 0.00 90 1011.9
20260507110005 18 3 4.8 8.0 0.00 0.00 0.00 90 1011.9
20260507105905 18 1 4.8 8.0 0.00 0.00 0.00 90 1011.9
20260507105805 18 1 4.8 8.0 0.00 0.00 0.00 90 1011.9
20260507105705 18 1 4.8 8.0 0.00 0.00 0.00 90 1011.9
20260507105607 18 1 4.8 8.0 0.00 0.00 0.00 90 1012.0
20260507105506 18 4 4.8 8.0 0.00 0.00 0.00 90 1011.9
20260507105405 18 6 3.2 8.0 0.00 0.00 0.00 90 1012.0
20260507105306 18 3 1.6 8.0 0.00 0.00 0.00 90 1011.9
20260507105205 18 3 3.2 8.0 0.00 0.00 0.00 90 1012.0
20260507105104 18 3 3.2 8.0 0.00 0.00 0.00 90 1012.0
20260507105005 18 3 4.8 8.0 0.00 0.00 0.00 90 1011.9
20260507104905 18 3 4.8 9.7 0.00 0.00 0.00 90 1011.8
20260507104805 18 3 3.2 11.3 0.00 0.00 0.00 90 1011.8
20260507104704 18 4 4.8 11.3 0.00 0.00 0.00 90 1011.8
20260507104605 18 4 4.8 11.3 0.00 0.00 0.00 90 1011.9
20260507104506 18 0 3.2 11.3 0.00 0.00 0.00 90 1011.9
20260507104405 18 0 4.8 11.3 0.00 0.00 0.00 90 1012.0
20260507104306 18 6 6.4 11.3 0.00 0.00 0.00 90 1012.0
20260507104205 18 1 4.8 14.5 0.00 0.00 0.00 90 1012.0
20260507104105 18 51 4.8 14.5 0.00 0.00 0.00 90 1012.0
20260507104005 18 3 6.4 14.5 0.00 0.00 0.00 90 1011.8
20260507103904 18 1 8.0 14.5 0.00 0.00 0.00 90 1011.8
20260507103805 18 0 6.4 14.5 0.00 0.00 0.00 90 1011.7
20260507103704 18 0 6.4 14.5 0.00 0.00 0.00 90 1011.7
20260507103604 18 0 4.8 14.5 0.00 0.00 0.00 90 1011.6
20260507103505 18 1 4.8 14.5 0.00 0.00 0.00 90 1011.6
20260507103404 18 1 6.4 14.5 0.00 0.00 0.00 90 1011.6
20260507103305 18 1 8.0 14.5 0.00 0.00 0.00 90 1011.7
20260507103205 18 0 8.0 11.3 0.00 0.00 0.00 90 1011.8
20260507103105 18 49 6.4 11.3 0.00 0.00 0.00 90 1011.7
20260507103004 18 0 6.4 11.3 0.00 0.00 0.00 90 1011.7
20260507102904 18 0 6.4 11.3 0.00 0.00 0.00 90 1011.7
20260507102805 18 51 3.2 11.3 0.00 0.00 0.00 90 1011.8
20260507102704 18 51 3.2 11.3 0.00 0.00 0.00 90 1011.8
20260507102604 18 0 6.4 11.3 0.00 0.00 0.00 90 1011.7
20260507102504 18 51 4.8 11.3 0.00 0.00 0.00 90 1011.6
20260507102404 18 0 4.8 14.5 0.00 0.00 0.00 90 1011.5
20260507102306 18 0 6.4 14.5 0.00 0.00 0.00 90 1011.5
20260507102203 18 4 6.4 16.1 0.00 0.00 0.00 90 1011.4
20260507102105 18 1 6.4 16.1 0.00 0.00 0.00 90 1011.5
20260507102007 18 4 6.4 16.1 0.00 0.00 0.00 90 1011.5
20260507101904 18 4 6.4 16.1 0.00 0.00 0.00 90 1011.6
20260507101805 18 0 6.4 16.1 0.00 0.00 0.00 90 1011.7
20260507101706 18 1 6.4 16.1 0.00 0.00 0.00 90 1011.7
20260507101604 18 0 8.0 16.1 0.00 0.00 0.00 90 1011.7
20260507101503 18 0 8.0 16.1 0.00 0.00 0.00 90 1011.7
20260507101404 18 0 8.0 16.1 0.00 0.00 0.00 90 1011.7
20260507101304 18 0 8.0 16.1 0.00 0.00 0.00 90 1011.7
20260507101206 18 0 6.4 14.5 0.00 0.00 0.00 90 1011.6
20260507101106 18 3 4.8 16.1 0.00 0.00 0.00 90 1011.7
20260507101005 18 0 4.8 16.1 0.00 0.00 0.00 90 1011.6
20260507100904 18 51 4.8 16.1 0.00 0.00 0.00 90 1011.6
20260507100804 18 51 4.8 16.1 0.00 0.00 0.00 90 1011.7
20260507100704 18 0 6.4 16.1 0.00 0.00 0.00 90 1011.7
20260507100603 18 1 8.0 17.7 0.00 0.00 0.00 90 1011.7
20260507100503 18 48 6.4 22.5 0.00 0.00 0.00 90 1011.6
20260507100403 18 0 6.4 22.5 0.00 0.00 0.00 90 1011.5
20260507100303 18 0 8.0 22.5 0.00 0.00 0.00 90 1011.5
20260507100203 18 0 8.0 22.5 0.00 0.00 0.00 90 1011.5
20260507100103 18 48 8.0 22.5 0.00 0.00 0.00 90 1011.5
20260507100004 18 0 8.0 22.5 0.00 0.00 0.00 90 1011.4
20260507095903 18 0 8.0 22.5 0.00 0.00 0.00 90 1011.4
20260507095803 18 0 9.7 22.5 0.00 0.00 0.00 90 1011.4
20260507095703 18 0 12.9 22.5 0.00 0.00 0.00 90 1011.5
20260507095603 18 7 12.9 22.5 0.00 0.00 0.00 90 1011.4
20260507095503 18 7 9.7 20.9 0.00 0.00 0.00 90 1011.4
20260507095403 18 0 8.0 16.1 0.00 0.00 0.00 90 1011.3
20260507095306 18 7 6.4 16.1 0.00 0.00 0.00 90 1011.4
20260507095203 18 1 8.0 16.1 0.00 0.00 0.00 90 1011.4
20260507095104 18 6 6.4 16.1 0.00 0.00 0.00 90 1011.3
20260507095004 18 6 6.4 16.1 0.00 0.00 0.00 90 1011.3
20260507094903 18 8 6.4 19.3 0.00 0.00 0.00 90 1011.3
20260507094803 18 3 4.8 19.3 0.00 0.00 0.00 90 1011.3
20260507094703 18 0 4.8 19.3 0.00 0.00 0.00 90 1011.3
20260507094604 18 0 6.4 19.3 0.00 0.00 0.00 90 1011.3
20260507094505 18 1 9.7 19.3 0.00 0.00 0.00 90 1011.2
20260507094403 18 1 9.7 19.3 0.00 0.00 0.00 90 1011.1
20260507094304 18 1 8.0 19.3 0.00 0.00 0.00 90 1011.0
20260507094203 18 7 8.0 19.3 0.00 0.00 0.00 90 1011.0
20260507094103 18 0 11.3 19.3 0.00 0.00 0.00 90 1010.9
20260507094001 18 6 9.7 19.3 0.00 0.00 0.00 90 1011.0
20260507093901 18 1 8.0 17.7 0.00 0.00 0.00 90 1011.0
20260507093758 18 4 9.7 17.7 0.00 0.00 0.00 90 1011.0
20260507093657 18 3 9.7 17.7 0.00 0.00 0.00 90 1011.0
20260507093556 18 8 8.0 17.7 0.00 0.00 0.00 90 1011.1
20260507093455 18 7 8.0 17.7 0.00 0.00 0.00 90 1011.1
20260507093352 18 4 8.0 17.7 0.00 0.00 0.00 90 1011.1
20260507093251 18 7 9.7 17.7 0.00 0.00 0.00 89 1011.1
20260507093149 18 3 11.3 17.7 0.00 0.00 0.00 89 1011.0
20260507093048 18 6 8.0 17.7 0.00 0.00 0.00 89 1010.9
20260507092946 18 3 8.0 17.7 0.00 0.00 0.00 89 1011.1
20260507092846 18 4 9.7 17.7 0.00 0.00 0.00 89 1011.1
20260507092743 18 7 11.3 17.7 0.00 0.00 0.00 89 1011.1
20260507092642 18 3 9.7 17.7 0.00 0.00 0.00 89 1011.1
20260507092542 18 3 8.0 17.7 0.00 0.00 0.00 89 1011.1
20260507092439 18 1 6.4 17.7 0.00 0.00 0.00 89 1011.2
20260507092336 18 47 8.0 17.7 0.00 0.00 0.00 89 1011.2
20260507092235 18 3 9.7 17.7 0.00 0.00 0.00 89 1011.2
20260507092133 18 48 8.0 17.7 0.00 0.00 0.00 89 1011.3
20260507092032 18 0 6.4 17.7 0.00 0.00 0.00 89 1011.3
20260507091930 18 0 8.0 17.7 0.00 0.00 0.00 89 1011.2
20260507091829 18 3 8.0 17.7 0.00 0.00 0.00 89 1011.1
20260507091727 18 4 8.0 17.7 0.00 0.00 0.00 89 1011.1
20260507091626 18 1 11.3 22.5 0.00 0.00 0.00 89 1011.0
20260507091523 18 0 11.3 22.5 0.00 0.00 0.00 89 1011.1
20260507091422 18 3 9.7 22.5 0.00 0.00 0.00 89 1011.0
20260507091321 18 49 9.7 22.5 0.00 0.00 0.00 89 1011.1
20260507091220 18 1 9.7 22.5 0.00 0.00 0.00 89 1011.0
20260507091117 18 1 8.0 22.5 0.00 0.00 0.00 89 1011.1
20260507091018 18 48 9.7 22.5 0.00 0.00 0.00 89 1011.2
20260507090915 18 47 9.7 22.5 0.00 0.00 0.00 89 1011.2
20260507090815 18 1 11.3 22.5 0.00 0.00 0.00 89 1011.3
20260507090712 19 1 11.3 22.5 0.00 0.00 0.00 89 1011.2
20260507090610 19 49 9.7 19.3 0.00 0.00 0.00 89 1011.2
20260507090505 19 48 9.7 19.3 0.00 0.00 0.00 89 1011.3
20260507090404 19 0 8.0 19.3 0.00 0.00 0.00 89 1011.3
20260507090303 19 49 9.7 19.3 0.00 0.00 0.00 89 1011.4
20260507090203 19 0 9.7 19.3 0.00 0.00 0.00 89 1011.3
20260507090105 19 4 8.0 14.5 0.00 0.00 0.00 88 1011.3
20260507090004 19 48 8.0 11.3 0.00 0.00 0.00 88 1011.2
20260507085903 19 3 8.0 16.1 0.00 0.00 0.00 88 1011.2
20260507085803 19 48 6.4 16.1 0.00 0.00 0.00 89 1011.2
20260507085702 19 1 8.0 20.9 0.00 0.00 0.00 88 1011.2
20260507085602 19 48 9.7 20.9 0.00 0.00 0.00 88 1011.2
20260507085503 19 1 9.7 20.9 0.00 0.00 0.00 88 1011.3
20260507085404 19 47 8.0 20.9 0.00 0.00 0.00 88 1011.4
20260507085306 19 49 11.3 20.9 0.00 0.00 0.00 88 1011.5
20260507085202 19 49 11.3 20.9 0.00 0.00 0.00 88 1011.5
20260507085032 19 49 11.3 20.9 0.00 0.00 0.00 88 1011.3
20260507084932 19 49 11.3 20.9 0.00 0.00 0.00 88 1011.3
20260507084830 19 49 12.9 20.9 0.00 0.00 0.00 88 1011.2
20260507084728 19 4 12.9 22.5 0.00 0.00 0.00 88 1011.2
20260507084627 19 51 12.9 22.5 0.00 0.00 0.00 88 1011.2
20260507084525 19 4 11.3 25.7 0.00 0.00 0.00 88 1011.3
20260507084424 19 0 9.7 25.7 0.00 0.00 0.00 88 1011.3
20260507084322 19 49 9.7 25.7 0.00 0.00 0.00 88 1011.4
20260507084220 19 0 11.3 25.7 0.00 0.00 0.00 88 1011.4
20260507084119 19 0 11.3 25.7 0.00 0.00 0.00 88 1011.3
20260507084018 19 6 11.3 25.7 0.00 0.00 0.00 88 1011.3
20260507083916 19 0 12.9 25.7 0.00 0.00 0.00 88 1011.3
20260507083814 19 0 14.5 25.7 0.00 0.00 0.00 88 1011.3
20260507083713 19 0 16.1 25.7 0.00 0.00 0.00 88 1011.3
20260507083612 19 0 14.5 22.5 0.00 0.00 0.00 88 1011.3
20260507083507 19 1 9.7 22.5 0.00 0.00 0.00 88 1011.2
20260507083408 19 1 9.7 22.5 0.00 0.00 0.00 88 1011.2
20260507083308 19 0 12.9 22.5 0.00 0.00 0.00 88 1011.1
20260507083205 19 0 12.9 22.5 0.00 0.00 0.00 88 1011.0
20260507083103 19 4 12.9 22.5 0.00 0.00 0.00 88 1011.0
20260507083004 19 0 14.5 22.5 0.00 0.00 0.00 88 1011.0
20260507082902 19 1 12.9 22.5 0.00 0.00 0.00 88 1011.0
20260507082804 19 1 9.7 22.5 0.00 0.00 0.00 88 1011.0
20260507082703 19 4 8.0 17.7 0.00 0.00 0.00 88 1011.0
20260507082602 19 6 8.0 17.7 0.00 0.00 0.00 88 1011.2
20260507082503 19 0 9.7 17.7 0.00 0.00 0.00 88 1011.2
20260507082402 19 1 9.7 17.7 0.00 0.00 0.00 88 1011.2
20260507082306 19 0 11.3 19.3 0.00 0.00 0.00 88 1011.2
20260507082204 19 1 11.3 19.3 0.00 0.00 0.00 88 1011.3
20260507082103 19 1 9.7 19.3 0.00 0.00 0.00 88 1011.2
20260507082003 19 0 9.7 19.3 0.00 0.00 0.00 88 1011.3
20260507081902 19 4 9.7 19.3 0.00 0.00 0.00 88 1011.2
20260507081802 19 0 8.0 19.3 0.00 0.00 0.00 88 1011.1
20260507081703 19 1 8.0 19.3 0.00 0.00 0.00 87 1011.0
20260507081603 19 0 11.3 19.3 0.00 0.00 0.00 87 1011.0
20260507081504 19 0 11.3 19.3 0.00 0.00 0.00 87 1010.9
20260507081402 19 0 11.3 19.3 0.00 0.00 0.00 87 1011.0
20260507081302 19 0 8.0 17.7 0.00 0.00 0.00 87 1010.9
20260507081202 19 48 8.0 17.7 0.00 0.00 0.00 87 1011.0
20260507081102 19 3 9.7 17.7 0.00 0.00 0.00 87 1010.9
20260507081003 19 1 8.0 17.7 0.00 0.00 0.00 87 1011.0
20260507080903 19 0 9.7 17.7 0.00 0.00 0.00 87 1011.0
20260507080801 19 3 11.3 17.7 0.00 0.00 0.00 87 1011.0
20260507080702 19 0 11.3 17.7 0.00 0.00 0.00 87 1010.9
20260507080602 19 1 9.7 17.7 0.00 0.00 0.00 87 1011.0
20260507080502 19 0 8.0 17.7 0.00 0.00 0.00 87 1011.1
20260507080402 19 4 8.0 17.7 0.00 0.00 0.00 87 1011.0
20260507080303 20 0 8.0 17.7 0.00 0.00 0.00 87 1011.0
20260507080203 19 1 6.4 17.7 0.00 0.00 0.00 87 1011.0
20260507080103 20 0 6.4 17.7 0.00 0.00 0.00 87 1011.0
20260507080003 20 0 6.4 17.7 0.00 0.00 0.00 87 1011.0
20260507075902 20 0 6.4 17.7 0.00 0.00 0.00 87 1011.0
20260507075802 20 0 8.0 17.7 0.00 0.00 0.00 87 1011.0
20260507075702 20 0 9.7 17.7 0.00 0.00 0.00 87 1011.0
20260507075601 20 0 9.7 17.7 0.00 0.00 0.00 87 1011.1
20260507075503 20 0 8.0 16.1 0.00 0.00 0.00 87 1011.2
20260507075403 20 0 8.0 17.7 0.00 0.00 0.00 87 1011.2
20260507075306 20 0 6.4 17.7 0.00 0.00 0.00 87 1011.2
20260507075202 20 0 8.0 17.7 0.00 0.00 0.00 87 1011.2
20260507075104 20 0 9.7 17.7 0.00 0.00 0.00 87 1011.3
20260507075003 20 48 9.7 19.3 0.00 0.00 0.00 87 1011.3
20260507074902 20 0 9.7 19.3 0.00 0.00 0.00 87 1011.2
20260507074804 20 0 9.7 19.3 0.00 0.00 0.00 87 1011.2
20260507074703 20 0 11.3 19.3 0.00 0.00 0.00 87 1011.2
20260507074603 20 0 9.7 19.3 0.00 0.00 0.00 87 1011.2
20260507074502 20 0 9.7 19.3 0.00 0.00 0.00 87 1011.2
20260507074402 20 1 11.3 19.3 0.00 0.00 0.00 87 1011.2
20260507074302 20 0 11.3 19.3 0.00 0.00 0.00 87 1011.3
20260507074202 20 0 11.3 19.3 0.00 0.00 0.00 87 1011.3
20260507074102 20 0 11.3 19.3 0.00 0.00 0.00 87 1011.3
20260507074002 20 3 8.0 14.5 0.00 0.00 0.00 87 1011.3
20260507073903 20 0 6.4 14.5 0.00 0.00 0.00 87 1011.2
20260507073802 20 0 6.4 14.5 0.00 0.00 0.00 87 1011.2
20260507073702 20 3 8.0 14.5 0.00 0.00 0.00 87 1011.2
20260507073603 20 0 8.0 14.5 0.00 0.00 0.00 87 1011.2
20260507073503 20 0 8.0 14.5 0.00 0.00 0.00 87 1011.2
20260507073402 20 0 8.0 14.5 0.00 0.00 0.00 87 1011.2
20260507073302 20 0 6.4 14.5 0.00 0.00 0.00 87 1011.2
20260507073203 20 3 6.4 14.5 0.00 0.00 0.00 87 1011.2
20260507073102 20 7 8.0 14.5 0.00 0.00 0.00 87 1011.2
20260507073002 20 0 8.0 19.3 0.00 0.00 0.00 87 1011.2
20260507072904 20 0 9.7 19.3 0.00 0.00 0.00 87 1011.2
20260507072802 20 0 6.4 19.3 0.00 0.00 0.00 87 1011.2
20260507072703 20 0 6.4 19.3 0.00 0.00 0.00 87 1011.2
20260507072602 20 0 6.4 19.3 0.00 0.00 0.00 87 1011.2
20260507072502 20 0 6.4 19.3 0.00 0.00 0.00 87 1011.3
20260507072402 20 0 6.4 19.3 0.00 0.00 0.00 87 1011.3
20260507072306 20 1 6.4 19.3 0.00 0.00 0.00 87 1011.4
20260507072202 20 0 9.7 19.3 0.00 0.00 0.00 87 1011.5
20260507072101 20 0 9.7 19.3 0.00 0.00 0.00 87 1011.5
20260507072001 20 0 8.0 17.7 0.00 0.00 0.00 87 1011.5
20260507071903 20 0 6.4 17.7 0.00 0.00 0.00 87 1011.6
20260507071802 20 4 6.4 17.7 0.00 0.00 0.00 87 1011.5
20260507071702 20 0 9.7 17.7 0.00 0.00 0.00 86 1011.5
20260507071601 20 0 11.3 17.7 0.00 0.00 0.00 87 1011.5
20260507071500 20 0 9.7 17.7 0.00 0.00 0.00 87 1011.5
20260507071401 20 0 6.4 17.7 0.00 0.00 0.00 87 1011.5
20260507071302 20 0 6.4 17.7 0.00 0.00 0.00 87 1011.6
20260507071159 20 0 6.4 17.7 0.00 0.00 0.00 86 1011.6
20260507071101 20 0 8.0 17.7 0.00 0.00 0.00 86 1011.6
20260507071000 20 0 8.0 17.7 0.00 0.00 0.00 86 1011.6
20260507070859 20 0 9.7 17.7 0.00 0.00 0.00 87 1011.5
20260507070759 20 0 11.3 17.7 0.00 0.00 0.00 86 1011.5
20260507070659 20 0 9.7 19.3 0.00 0.00 0.00 86 1011.4
20260507070556 20 0 9.7 19.3 0.00 0.00 0.00 87 1011.4
20260507070454 20 0 9.7 19.3 0.00 0.00 0.00 87 1011.5
20260507070353 20 0 9.7 19.3 0.00 0.00 0.00 86 1011.4
20260507070250 20 0 9.7 19.3 0.00 0.00 0.00 86 1011.3
20260507070147 20 0 8.0 19.3 0.00 0.00 0.00 86 1011.3
20260507070047 20 0 6.4 19.3 0.00 0.00 0.00 86 1011.4
20260507065947 20 0 6.4 19.3 0.00 0.00 0.00 86 1011.3
20260507065845 20 0 11.3 19.3 0.00 0.00 0.00 86 1011.4
20260507065743 20 0 12.9 19.3 0.00 0.00 0.00 86 1011.4
20260507065641 20 0 9.7 17.7 0.00 0.00 0.00 86 1011.4
20260507065540 20 4 8.0 17.7 0.00 0.00 0.00 86 1011.5
20260507065438 20 0 8.0 17.7 0.00 0.00 0.00 86 1011.5
20260507065337 20 0 11.3 17.7 0.00 0.00 0.00 86 1011.5
20260507065234 20 0 11.3 17.7 0.00 0.00 0.00 86 1011.6
20260507065132 20 0 9.7 17.7 0.00 0.00 0.00 86 1011.7
20260507065031 20 0 8.0 14.5 0.00 0.00 0.00 86 1011.6
20260507064931 20 0 8.0 14.5 0.00 0.00 0.00 86 1011.6
20260507064830 20 0 8.0 14.5 0.00 0.00 0.00 86 1011.5
20260507064732 20 0 6.4 14.5 0.00 0.00 0.00 86 1011.4
20260507064631 20 0 4.8 14.5 0.00 0.00 0.00 86 1011.3
20260507064531 20 0 6.4 14.5 0.00 0.00 0.00 86 1011.3
20260507064431 20 3 6.4 17.7 0.00 0.00 0.00 86 1011.2
20260507064333 20 0 8.0 17.7 0.00 0.00 0.00 86 1011.1
20260507064232 20 0 8.0 17.7 0.00 0.00 0.00 86 1011.2
20260507064131 20 0 8.0 20.9 0.00 0.00 0.00 86 1011.2
20260507064032 20 0 8.0 20.9 0.00 0.00 0.00 86 1011.2
20260507063932 20 0 6.4 20.9 0.00 0.00 0.00 86 1011.2
20260507063832 20 0 6.4 20.9 0.00 0.00 0.00 86 1011.3
20260507063731 20 0 9.7 20.9 0.00 0.00 0.00 86 1011.4
20260507063631 20 0 11.3 20.9 0.00 0.00 0.00 86 1011.4
20260507063532 20 0 9.7 20.9 0.00 0.00 0.00 86 1011.6
20260507063431 20 0 8.0 20.9 0.00 0.00 0.00 86 1011.6
20260507063332 20 0 9.7 20.9 0.00 0.00 0.00 86 1011.6
20260507063231 20 0 8.0 20.9 0.00 0.00 0.00 86 1011.6
20260507063130 20 0 8.0 20.9 0.00 0.00 0.00 86 1011.5
20260507063032 20 0 11.3 20.9 0.00 0.00 0.00 86 1011.5
20260507062933 20 0 11.3 20.9 0.00 0.00 0.00 86 1011.5
20260507062832 20 0 9.7 16.1 0.00 0.00 0.00 86 1011.4
20260507062731 20 0 9.7 16.1 0.00 0.00 0.00 86 1011.4
20260507062632 20 0 9.7 17.7 0.00 0.00 0.00 86 1011.3
20260507062531 20 0 9.7 17.7 0.00 0.00 0.00 86 1011.3
20260507062431 20 7 9.7 17.7 0.00 0.00 0.00 86 1011.2
20260507062333 20 0 8.0 17.7 0.00 0.00 0.00 86 1011.2
20260507062231 20 0 8.0 17.7 0.00 0.00 0.00 86 1011.1
20260507062130 20 0 9.7 17.7 0.00 0.00 0.00 86 1011.1
20260507062029 20 0 8.0 20.9 0.00 0.00 0.00 86 1011.1
20260507061927 20 0 8.0 20.9 0.00 0.00 0.00 86 1011.0
20260507061825 20 0 11.3 20.9 0.00 0.00 0.00 86 1011.1
20260507061723 20 0 11.3 20.9 0.00 0.00 0.00 86 1011.1
20260507061622 20 0 8.0 20.9 0.00 0.00 0.00 86 1011.2
20260507061520 20 1 6.4 20.9 0.00 0.00 0.00 86 1011.2
20260507061419 20 0 9.7 20.9 0.00 0.00 0.00 85 1011.3
20260507061318 20 0 12.9 20.9 0.00 0.00 0.00 85 1011.3
20260507061216 20 1 11.3 20.9 0.00 0.00 0.00 85 1011.3
20260507061114 20 1 9.7 19.3 0.00 0.00 0.00 85 1011.4
20260507061013 20 0 9.7 19.3 0.00 0.00 0.00 85 1011.3
20260507060912 20 0 11.3 20.9 0.00 0.00 0.00 85 1011.3
20260507060810 20 0 9.7 20.9 0.00 0.00 0.00 86 1011.3
20260507060709 20 0 8.0 20.9 0.00 0.00 0.00 86 1011.3
20260507060607 20 0 9.7 20.9 0.00 0.00 0.00 85 1011.3
20260507060506 20 3 11.3 20.9 0.00 0.00 0.00 86 1011.3
20260507060404 20 1 12.9 20.9 0.00 0.00 0.00 86 1011.3
20260507060301 20 0 8.0 20.9 0.00 0.00 0.00 85 1011.2
20260507060201 20 0 8.0 20.9 0.00 0.00 0.00 86 1011.2
20260507060104 20 4 9.7 20.9 0.00 0.00 0.00 85 1011.3
20260507060004 20 0 11.3 20.9 0.00 0.00 0.00 85 1011.3
20260507055903 20 1 11.3 20.9 0.00 0.00 0.00 85 1011.3
20260507055802 20 0 14.5 20.9 0.00 0.00 0.00 85 1011.3
20260507055702 20 0 12.9 20.9 0.00 0.00 0.00 85 1011.3
20260507055604 20 0 9.7 19.3 0.00 0.00 0.00 85 1011.3
20260507055502 20 0 8.0 19.3 0.00 0.00 0.00 85 1011.3
20260507055402 20 0 8.0 19.3 0.00 0.00 0.00 85 1011.3
20260507055305 20 0 8.0 19.3 0.00 0.00 0.00 85 1011.3
20260507055202 20 0 8.0 19.3 0.00 0.00 0.00 85 1011.3
20260507055103 20 4 9.7 19.3 0.00 0.00 0.00 85 1011.3
20260507055003 20 0 8.0 19.3 0.00 0.00 0.00 85 1011.3
20260507054902 20 1 8.0 19.3 0.00 0.00 0.00 85 1011.2
20260507054802 20 0 11.3 19.3 0.00 0.00 0.00 85 1011.2
20260507054702 20 0 9.7 19.3 0.00 0.00 0.00 85 1011.1
20260507054602 20 0 8.0 19.3 0.00 0.00 0.00 85 1011.1
20260507054503 20 0 8.0 19.3 0.00 0.00 0.00 85 1011.0
20260507054402 20 0 8.0 19.3 0.00 0.00 0.00 85 1011.0
20260507054303 20 0 9.7 19.3 0.00 0.00 0.00 85 1010.9
20260507054202 20 0 8.0 19.3 0.00 0.00 0.00 85 1011.0
20260507054102 20 0 6.4 19.3 0.00 0.00 0.00 85 1010.9
20260507054004 20 0 8.0 19.3 0.00 0.00 0.00 85 1010.9
20260507053903 20 1 9.7 19.3 0.00 0.00 0.00 85 1010.9
20260507053802 20 0 8.0 19.3 0.00 0.00 0.00 85 1011.0
20260507053703 20 0 9.7 19.3 0.00 0.00 0.00 85 1011.0
20260507053603 20 3 9.7 19.3 0.00 0.00 0.00 85 1011.0
20260507053504 20 0 8.0 19.3 0.00 0.00 0.00 85 1011.0
20260507053403 20 0 9.7 19.3 0.00 0.00 0.00 85 1011.0
20260507053304 20 0 9.7 19.3 0.00 0.00 0.00 85 1011.0
20260507053203 20 0 8.0 19.3 0.00 0.00 0.00 85 1011.0
20260507053103 20 0 6.4 19.3 0.00 0.00 0.00 85 1010.9
20260507053003 20 0 9.7 19.3 0.00 0.00 0.00 85 1010.9
20260507052902 20 0 9.7 19.3 0.00 0.00 0.00 85 1010.9
20260507052803 20 0 9.7 19.3 0.00 0.00 0.00 85 1011.0
20260507052701 20 0 9.7 19.3 0.00 0.00 0.00 85 1011.0
20260507052603 20 0 9.7 19.3 0.00 0.00 0.00 85 1011.1
20260507052504 20 0 9.7 20.9 0.00 0.00 0.00 85 1011.0
20260507052402 20 0 11.3 20.9 0.00 0.00 0.00 85 1011.0
20260507052305 20 0 11.3 20.9 0.00 0.00 0.00 85 1011.0
20260507052202 20 0 11.3 20.9 0.00 0.00 0.00 85 1011.0
20260507052102 20 0 9.7 20.9 0.00 0.00 0.00 85 1011.0
20260507052003 20 0 8.0 20.9 0.00 0.00 0.00 85 1011.1
20260507051904 20 0 9.7 20.9 0.00 0.00 0.00 85 1011.0
20260507051803 20 0 9.7 20.9 0.00 0.00 0.00 85 1011.0
20260507051702 20 4 11.3 20.9 0.00 0.00 0.00 85 1011.1
20260507051603 21 0 8.0 20.9 0.00 0.00 0.00 85 1011.1
20260507051504 20 0 6.4 17.7 0.00 0.00 0.00 85 1011.2
20260507051402 21 0 9.7 17.7 0.00 0.00 0.00 85 1011.1
20260507051302 21 0 11.3 17.7 0.00 0.00 0.00 85 1011.2
20260507051203 21 0 11.3 17.7 0.00 0.00 0.00 85 1011.2
20260507051102 21 0 9.7 17.7 0.00 0.00 0.00 85 1011.2
20260507051003 21 0 9.7 17.7 0.00 0.00 0.00 85 1011.1
20260507050905 21 3 8.0 17.7 0.00 0.00 0.00 85 1011.2
20260507050802 21 0 8.0 17.7 0.00 0.00 0.00 85 1011.1
20260507050703 21 3 6.4 17.7 0.00 0.00 0.00 85 1011.1
20260507050602 21 1 6.4 17.7 0.00 0.00 0.00 85 1011.0
20260507050501 21 0 6.4 17.7 0.00 0.00 0.00 85 1011.0
20260507050401 21 0 8.0 17.7 0.00 0.00 0.00 85 1011.1
20260507050300 21 0 11.3 17.7 0.00 0.00 0.00 85 1011.1
20260507050157 21 0 9.7 17.7 0.00 0.00 0.00 86 1011.0
20260507050056 21 0 8.0 17.7 0.00 0.00 0.00 86 1011.0
20260507045957 21 0 8.0 16.1 0.00 0.00 0.00 86 1011.1
20260507045857 21 0 8.0 16.1 0.00 0.00 0.00 86 1011.0
20260507045757 21 0 6.4 16.1 0.00 0.00 0.00 86 1011.1
20260507045656 21 0 6.4 16.1 0.00 0.00 0.00 86 1011.1
20260507045555 21 0 6.4 16.1 0.00 0.00 0.00 86 1011.1
20260507045457 21 0 6.4 16.1 0.00 0.00 0.00 86 1011.1
20260507045356 21 0 6.4 16.1 0.00 0.00 0.00 86 1011.1
20260507045256 21 0 9.7 16.1 0.00 0.00 0.00 85 1011.0
20260507045156 21 0 11.3 16.1 0.00 0.00 0.00 85 1011.1
20260507045057 21 0 11.3 16.1 0.00 0.00 0.00 85 1011.1
20260507044956 21 0 9.7 17.7 0.00 0.00 0.00 85 1011.1
20260507044856 21 0 6.4 17.7 0.00 0.00 0.00 85 1011.1
20260507044757 21 0 4.8 17.7 0.00 0.00 0.00 85 1011.0
20260507044656 21 4 4.8 17.7 0.00 0.00 0.00 85 1011.0
20260507044556 21 0 6.4 17.7 0.00 0.00 0.00 85 1011.0
20260507044457 21 0 8.0 17.7 0.00 0.00 0.00 85 1011.0
20260507044356 21 0 8.0 17.7 0.00 0.00 0.00 85 1010.9
20260507044256 21 0 8.0 22.5 0.00 0.00 0.00 85 1010.8
20260507044156 21 0 9.7 22.5 0.00 0.00 0.00 85 1010.8
20260507044057 21 0 9.7 22.5 0.00 0.00 0.00 85 1010.8
20260507043958 21 0 9.7 22.5 0.00 0.00 0.00 85 1010.8
20260507043856 21 4 9.7 22.5 0.00 0.00 0.00 85 1010.7
20260507043756 21 3 9.7 22.5 0.00 0.00 0.00 85 1010.6
20260507043657 21 8 9.7 22.5 0.00 0.00 0.00 85 1010.6
20260507043557 21 6 9.7 22.5 0.00 0.00 0.00 85 1010.6
20260507043456 21 0 12.9 22.5 0.00 0.00 0.00 85 1010.7
20260507043357 21 0 12.9 22.5 0.00 0.00 0.00 85 1010.6
20260507043256 21 0 8.0 19.3 0.00 0.00 0.00 85 1010.7
20260507043155 21 0 8.0 19.3 0.00 0.00 0.00 85 1010.8
20260507043057 21 0 9.7 19.3 0.00 0.00 0.00 85 1010.9
20260507042956 21 68 9.7 19.3 0.00 0.00 0.00 85 1010.8
20260507042856 21 1 9.7 19.3 0.00 0.00 0.00 85 1011.0
20260507042756 21 0 11.3 19.3 0.00 0.00 0.00 85 1010.9
20260507042658 21 0 11.3 19.3 0.00 0.00 0.00 85 1010.9
20260507042556 21 1 9.7 19.3 0.00 0.00 0.00 85 1010.9
20260507042458 21 1 8.0 16.1 0.00 0.00 0.00 85 1010.9
20260507042357 21 0 6.4 16.1 0.00 0.00 0.00 85 1011.0
20260507042255 21 0 6.4 16.1 0.00 0.00 0.00 85 1011.0
20260507042156 21 0 4.8 16.1 0.00 0.00 0.00 85 1011.1
20260507042053 21 0 6.4 17.7 0.00 0.00 0.00 85 1011.1
20260507041952 21 0 8.0 17.7 0.00 0.00 0.00 85 1011.0
20260507041850 21 0 8.0 17.7 0.00 0.00 0.00 85 1011.0
20260507041749 21 0 8.0 17.7 0.00 0.00 0.00 85 1011.0
20260507041647 21 0 6.4 19.3 0.00 0.00 0.00 85 1011.0
20260507041546 21 1 8.0 19.3 0.00 0.00 0.00 85 1010.9
20260507041446 21 0 9.7 19.3 0.00 0.00 0.00 85 1011.0
20260507041345 21 0 9.7 19.3 0.00 0.00 0.00 85 1011.0
20260507041242 21 0 11.3 19.3 0.00 0.00 0.00 85 1011.0
20260507041141 21 0 9.7 19.3 0.00 0.00 0.00 85 1011.0
20260507041040 21 0 9.7 19.3 0.00 0.00 0.00 85 1011.0
20260507040939 21 0 11.3 19.3 0.00 0.00 0.00 85 1011.0
20260507040836 21 0 11.3 19.3 0.00 0.00 0.00 85 1011.0
20260507040737 21 0 9.7 19.3 0.00 0.00 0.00 85 1011.0
20260507040635 21 0 9.7 19.3 0.00 0.00 0.00 85 1011.1
20260507040531 21 0 11.3 19.3 0.00 0.00 0.00 85 1011.1
20260507040433 21 0 11.3 19.3 0.00 0.00 0.00 85 1011.0
20260507040333 21 0 11.3 19.3 0.00 0.00 0.00 85 1011.0
20260507040233 21 0 11.3 22.5 0.00 0.00 0.00 85 1011.0
20260507040130 21 0 12.9 22.5 0.00 0.00 0.00 85 1011.0
20260507040032 21 0 11.3 22.5 0.00 0.00 0.00 85 1011.0
20260507035932 21 0 9.7 22.5 0.00 0.00 0.00 85 1011.0
20260507035830 21 0 9.7 22.5 0.00 0.00 0.00 85 1011.0
20260507035731 21 0 8.0 22.5 0.00 0.00 0.00 85 1011.0
20260507035631 21 0 6.4 22.5 0.00 0.00 0.00 85 1010.9
20260507035532 21 0 6.4 22.5 0.00 0.00 0.00 85 1010.9
20260507035432 21 0 9.7 22.5 0.00 0.00 0.00 85 1010.9
20260507035330 22 0 11.3 22.5 0.00 0.00 0.00 85 1010.8
20260507035232 21 0 8.0 20.9 0.00 0.00 0.00 86 1010.9
20260507035131 22 0 8.0 20.9 0.00 0.00 0.00 86 1010.8
20260507035031 22 0 11.3 20.9 0.00 0.00 0.00 86 1010.8
20260507034932 22 0 11.3 20.9 0.00 0.00 0.00 86 1010.8
20260507034831 22 0 9.7 20.9 0.00 0.00 0.00 86 1010.8
20260507034730 22 3 8.0 20.9 0.00 0.00 0.00 86 1010.8
20260507034632 22 0 9.7 20.9 0.00 0.00 0.00 86 1010.8
20260507034531 22 0 11.3 20.9 0.00 0.00 0.00 86 1010.7
20260507034431 22 0 12.9 20.9 0.00 0.00 0.00 86 1010.8
20260507034328 22 3 12.9 20.9 0.00 0.00 0.00 86 1010.7
20260507034224 22 0 11.3 20.9 0.00 0.00 0.00 86 1010.6
20260507034123 22 0 11.3 19.3 0.00 0.00 0.00 86 1010.7
20260507034020 22 0 11.3 19.3 0.00 0.00 0.00 86 1010.6
20260507033920 22 0 8.0 19.3 0.00 0.00 0.00 86 1010.6
20260507033814 22 0 9.7 19.3 0.00 0.00 0.00 86 1010.6
20260507033715 22 0 11.3 19.3 0.00 0.00 0.00 86 1010.6
20260507033613 22 0 11.3 19.3 0.00 0.00 0.00 86 1010.5
20260507033511 22 0 11.3 19.3 0.00 0.00 0.00 86 1010.5
20260507033406 22 0 9.7 19.3 0.00 0.00 0.00 86 1010.4
20260507033305 22 0 8.0 17.7 0.00 0.00 0.00 86 1010.3
20260507033202 22 0 9.7 17.7 0.00 0.00 0.00 86 1010.4
20260507033102 22 1 9.7 17.7 0.00 0.00 0.00 86 1010.4
20260507033002 22 0 9.7 17.7 0.00 0.00 0.00 86 1010.3
20260507032903 22 0 9.7 17.7 0.00 0.00 0.00 86 1010.3
20260507032802 22 0 8.0 17.7 0.00 0.00 0.00 86 1010.3
20260507032702 22 0 8.0 16.1 0.00 0.00 0.00 86 1010.3
20260507032604 22 0 8.0 16.1 0.00 0.00 0.00 86 1010.3
20260507032504 22 0 6.4 16.1 0.00 0.00 0.00 86 1010.3
20260507032402 22 0 6.4 16.1 0.00 0.00 0.00 87 1010.3
20260507032305 22 0 8.0 17.7 0.00 0.00 0.00 86 1010.1
20260507032203 22 0 9.7 17.7 0.00 0.00 0.00 87 1010.2
20260507032102 22 0 8.0 17.7 0.00 0.00 0.00 87 1010.1
20260507032003 22 0 8.0 17.7 0.00 0.00 0.00 87 1010.2
20260507031903 22 0 6.4 17.7 0.00 0.00 0.00 87 1010.2
20260507031802 22 0 6.4 19.3 0.00 0.00 0.00 87 1010.2
20260507031702 22 0 6.4 19.3 0.00 0.00 0.00 87 1010.1
20260507031603 22 0 9.7 19.3 0.00 0.00 0.00 87 1010.0
20260507031503 22 0 9.7 19.3 0.00 0.00 0.00 87 1010.0
20260507031404 22 0 9.7 19.3 0.00 0.00 0.00 87 1010.0
20260507031304 22 0 8.0 19.3 0.00 0.00 0.00 87 1010.1
20260507031203 22 0 8.0 19.3 0.00 0.00 0.00 87 1010.0
20260507031102 22 0 9.7 19.3 0.00 0.00 0.00 87 1009.9
20260507031002 22 0 11.3 19.3 0.00 0.00 0.00 87 1009.9
20260507030903 22 0 12.9 19.3 0.00 0.00 0.00 87 1009.9
20260507030802 22 0 11.3 19.3 0.00 0.00 0.00 87 1009.9
20260507030702 22 0 9.7 19.3 0.00 0.00 0.00 87 1009.9
20260507030604 22 0 9.7 19.3 0.00 0.00 0.00 87 1009.8
20260507030503 22 0 11.3 17.7 0.00 0.00 0.00 87 1009.8
20260507030402 22 0 12.9 17.7 0.00 0.00 0.00 88 1009.8
20260507030302 22 0 9.7 17.7 0.00 0.00 0.00 88 1009.8
20260507030204 22 0 8.0 16.1 0.00 0.00 0.00 88 1009.8
20260507030003 22 0 9.7 16.1 0.00 0.00 0.00 88 1009.8
20260507025903 22 0 8.0 16.1 0.00 0.00 0.00 88 1009.8
20260507025802 22 0 8.0 16.1 0.00 0.00 0.00 88 1009.7
20260507025702 22 0 9.7 16.1 0.00 0.00 0.00 88 1009.7
20260507025603 22 0 9.7 16.1 0.00 0.00 0.00 88 1009.7
20260507025504 22 0 9.7 16.1 0.00 0.00 0.00 88 1009.7
20260507025402 22 0 8.0 16.1 0.00 0.00 0.00 88 1009.6
20260507025306 22 0 9.7 16.1 0.00 0.00 0.00 88 1009.6
20260507025203 22 0 12.9 16.1 0.00 0.00 0.00 88 1009.6
20260507025103 22 0 9.7 16.1 0.00 0.00 0.00 88 1009.6
20260507025003 22 0 9.7 16.1 0.00 0.00 0.00 88 1009.6
20260507024904 22 0 9.7 16.1 0.00 0.00 0.00 88 1009.6
20260507024803 22 0 9.7 16.1 0.00 0.00 0.00 88 1009.4
20260507024702 22 0 8.0 14.5 0.00 0.00 0.00 89 1009.5
20260507024602 22 0 8.0 14.5 0.00 0.00 0.00 89 1009.4
20260507024503 22 0 8.0 14.5 0.00 0.00 0.00 89 1009.3
20260507024403 22 0 8.0 14.5 0.00 0.00 0.00 89 1009.3
20260507024302 22 0 8.0 16.1 0.00 0.00 0.00 89 1009.3
20260507024203 22 0 8.0 16.1 0.00 0.00 0.00 89 1009.2
20260507024103 22 0 9.7 16.1 0.00 0.00 0.00 89 1009.3
20260507024002 23 0 9.7 16.1 0.00 0.00 0.00 89 1009.2
20260507023903 23 0 8.0 16.1 0.00 0.00 0.00 89 1009.2
20260507023802 23 0 6.4 16.1 0.00 0.00 0.00 89 1009.1
20260507023703 23 0 6.4 16.1 0.00 0.00 0.00 89 1009.1
20260507023602 23 0 8.0 16.1 0.00 0.00 0.00 89 1009.1
20260507023504 23 0 8.0 16.1 0.00 0.00 0.00 89 1009.0
20260507023402 23 0 9.7 16.1 0.00 0.00 0.00 89 1009.0
20260507023303 23 0 9.7 14.5 0.00 0.00 0.00 89 1009.0
20260507023203 23 0 8.0 16.1 0.00 0.00 0.00 89 1009.0
20260507023103 23 0 8.0 16.1 0.00 0.00 0.00 89 1009.0
20260507023002 23 0 8.0 16.1 0.00 0.00 0.00 89 1009.0
20260507022902 23 0 8.0 16.1 0.00 0.00 0.00 89 1008.9
20260507022802 23 0 8.0 16.1 0.00 0.00 0.00 89 1008.9
20260507022703 23 0 6.4 16.1 0.00 0.00 0.00 89 1008.9
20260507022602 23 0 8.0 16.1 0.00 0.00 0.00 89 1008.8
20260507022502 23 0 8.0 16.1 0.00 0.00 0.00 89 1008.8
20260507022402 23 0 8.0 16.1 0.00 0.00 0.00 89 1008.8
20260507022306 23 0 9.7 16.1 0.00 0.00 0.00 89 1008.9
20260507022202 23 0 9.7 16.1 0.00 0.00 0.00 89 1009.0
20260507022102 23 0 6.4 17.7 0.00 0.00 0.00 89 1008.9
20260507022003 23 305 6.4 17.7 0.00 0.00 0.00 89 1008.9
20260507021902 23 316 6.4 17.7 0.00 0.00 0.00 89 1008.9
20260507021804 23 323 8.0 17.7 0.00 0.00 0.00 89 1008.9
20260507021702 23 293 6.4 17.7 0.00 0.00 0.00 89 1008.8
20260507021601 23 316 4.8 17.7 0.00 0.00 0.00 89 1008.8
20260507021503 23 326 6.4 17.7 0.00 0.00 0.00 89 1008.8
20260507021404 23 329 9.7 17.7 0.00 0.00 0.00 89 1008.8
20260507021302 23 319 9.7 17.7 0.00 0.00 0.00 89 1008.8
20260507021202 23 320 11.3 17.7 0.00 0.00 0.00 89 1008.8
20260507021103 23 310 11.3 17.7 0.00 0.00 0.00 89 1008.8
20260507021002 23 317 11.3 17.7 0.00 0.00 0.00 89 1008.7
20260507020902 23 329 9.7 17.7 0.00 0.00 0.00 89 1008.7
20260507020800 23 317 9.7 20.9 0.00 0.00 0.00 89 1008.7
20260507020659 23 305 9.7 20.9 0.00 0.00 0.00 89 1008.7
20260507020556 23 300 9.7 20.9 0.00 0.00 0.00 89 1008.7
20260507020455 23 310 8.0 20.9 0.00 0.00 0.00 89 1008.6
20260507020355 23 307 8.0 20.9 0.00 0.00 0.00 89 1008.6
20260507020254 23 313 9.7 20.9 0.00 0.00 0.00 89 1008.6
20260507020154 23 327 9.7 20.9 0.00 0.00 0.00 89 1008.6
20260507020055 23 292 9.7 20.9 0.00 0.00 0.00 89 1008.6
20260507015953 23 6 11.3 20.9 0.00 0.00 0.00 89 1008.5
20260507015852 23 0 9.7 20.9 0.00 0.00 0.00 89 1008.5
20260507015753 23 3 8.0 19.3 0.00 0.00 0.00 89 1008.5
20260507015653 23 334 8.0 19.3 0.00 0.00 0.00 89 1008.5
20260507015553 23 326 9.7 19.3 0.00 0.00 0.00 89 1008.5
20260507015453 24 3 8.0 19.3 0.00 0.00 0.00 89 1008.5
20260507015353 24 244 8.0 19.3 0.00 0.00 0.00 89 1008.5
20260507015252 24 4 6.4 19.3 0.00 0.00 0.00 89 1008.5
20260507015154 24 10 6.4 19.3 0.00 0.00 0.00 89 1008.5
20260507015054 24 354 9.7 19.3 0.00 0.00 0.00 89 1008.4
20260507014952 24 353 8.0 19.3 0.00 0.00 0.00 89 1008.5
20260507014854 24 0 6.4 16.1 0.00 0.00 0.00 89 1008.5
20260507014753 24 340 6.4 16.1 0.00 0.00 0.00 89 1008.5
20260507014654 24 314 6.4 16.1 0.00 0.00 0.00 89 1008.4
20260507014553 24 340 6.4 17.7 0.00 0.00 0.00 89 1008.5
20260507014452 24 321 6.4 17.7 0.00 0.00 0.00 89 1008.4
20260507014353 24 316 6.4 17.7 0.00 0.00 0.00 89 1008.4
20260507014252 24 321 8.0 17.7 0.00 0.00 0.00 89 1008.4
20260507014152 24 319 8.0 17.7 0.00 0.00 0.00 89 1008.4
20260507014054 24 341 8.0 17.7 0.00 0.00 0.00 90 1008.4
20260507013953 24 310 8.0 17.7 0.00 0.00 0.00 90 1008.3
20260507013852 24 330 8.0 17.7 0.00 0.00 0.00 89 1008.4
20260507013754 24 338 9.7 17.7 0.00 0.00 0.00 89 1008.3
20260507013654 24 350 11.3 17.7 0.00 0.00 0.00 90 1008.3
20260507013552 24 350 9.7 14.5 0.00 0.00 0.00 90 1008.3
20260507013453 24 344 8.0 14.5 0.00 0.00 0.00 90 1008.3
20260507013353 24 323 8.0 14.5 0.00 0.00 0.00 90 1008.3
20260507013252 24 338 6.4 14.5 0.00 0.00 0.00 89 1008.3
20260507013151 24 329 8.0 14.5 0.00 0.00 0.00 89 1008.3
20260507013052 24 314 9.7 14.5 0.00 0.00 0.00 89 1008.2
20260507012955 24 337 9.7 14.5 0.00 0.00 0.00 89 1008.2
20260507012852 24 327 8.0 14.5 0.00 0.00 0.00 89 1008.2
20260507012752 24 319 6.4 14.5 0.00 0.00 0.00 89 1008.2
20260507012654 24 331 6.4 14.5 0.00 0.00 0.00 89 1008.2
20260507012553 24 319 6.4 16.1 0.00 0.00 0.00 89 1008.1
20260507012452 24 331 6.4 20.9 0.00 0.00 0.00 89 1008.0
20260507012352 24 345 6.4 20.9 0.00 0.00 0.00 89 1008.0
20260507012252 24 330 6.4 20.9 0.00 0.00 0.00 89 1008.0
20260507012151 24 316 6.4 20.9 0.00 0.00 0.00 89 1007.9
20260507012051 25 350 8.0 20.9 0.00 0.00 0.00 89 1007.9
20260507011951 25 319 6.4 20.9 0.00 0.00 0.00 89 1007.8
20260507011852 25 338 6.4 20.9 0.00 0.00 0.00 88 1007.8
20260507011752 25 337 8.0 20.9 0.00 0.00 0.00 88 1007.8
20260507011652 25 336 11.3 20.9 0.00 0.00 0.00 88 1007.7
20260507011553 25 334 9.7 20.9 0.00 0.00 0.00 88 1007.7
20260507011452 25 288 8.0 20.9 0.00 0.00 0.00 88 1007.7
20260507011352 25 310 11.3 20.9 0.00 0.00 0.00 87 1007.7
20260507011252 25 313 12.9 20.9 0.00 0.00 0.00 87 1007.7
20260507011151 25 313 14.5 20.9 0.00 0.00 0.00 87 1007.7
20260507011052 26 309 12.9 20.9 0.00 0.00 0.00 86 1007.7
20260507010951 26 320 12.9 20.9 0.00 0.00 0.00 85 1007.6
20260507010852 26 282 11.3 20.9 0.00 0.00 0.00 85 1007.7
20260507010751 26 283 11.3 20.9 0.00 0.00 0.00 85 1007.6
20260507010651 27 327 11.3 20.9 0.00 0.00 0.00 85 1007.5
20260507010553 27 300 12.9 20.9 0.00 0.00 0.00 86 1007.5
20260507010452 27 312 9.7 20.9 0.00 0.00 0.00 86 1007.5
20260507010351 27 330 3.2 11.3 0.00 0.00 0.00 86 1007.4
20260507010251 27 17 0.0 4.8 0.00 0.00 0.00 86 1007.3
20260507010153 27 114 0.0 4.8 0.00 0.00 0.00 86 1007.3
20260507010054 27 114 1.6 6.4 0.00 0.00 0.00 86 1007.3
20260507005951 27 114 3.2 6.4 0.00 0.00 0.00 86 1007.3
20260507005850 27 134 1.6 6.4 0.00 0.00 0.00 86 1007.2
20260507005748 27 141 1.6 6.4 0.00 0.00 0.00 86 1007.3
20260507005645 27 142 0.0 8.0 0.00 0.00 0.00 86 1007.2
20260507005542 27 141 0.0 8.0 0.00 0.00 0.00 86 1007.2
20260507005441 27 141 1.6 9.7 0.00 0.00 0.00 86 1007.2
20260507005339 27 141 3.2 9.7 0.00 0.00 0.00 86 1007.1
20260507005238 27 89 4.8 9.7 0.00 0.00 0.00 86 1007.0
20260507005136 27 90 3.2 9.7 0.00 0.00 0.00 86 1007.0
20260507005035 27 87 1.6 9.7 0.00 0.00 0.00 86 1007.0
20260507004934 27 85 3.2 9.7 0.00 0.00 0.00 86 1006.9
20260507004831 27 148 3.2 9.7 0.00 0.00 0.00 86 1006.9
20260507004730 27 140 4.8 9.7 0.00 0.00 0.00 86 1006.9
20260507004631 27 110 6.4 9.7 0.00 0.00 0.00 86 1007.0
20260507004533 27 109 8.0 9.7 0.00 0.00 0.00 86 1006.9
20260507004431 27 109 6.4 8.0 0.00 0.00 0.00 86 1006.9
20260507004331 27 123 3.2 8.0 0.00 0.00 0.00 86 1006.9
20260507004230 27 114 3.2 8.0 0.00 0.00 0.00 86 1006.9
20260507004132 27 106 3.2 8.0 0.00 0.00 0.00 86 1006.9
20260507004032 28 135 3.2 8.0 0.00 0.00 0.00 86 1006.9
20260507003931 28 117 3.2 8.0 0.00 0.00 0.00 86 1006.9
20260507003833 28 154 4.8 8.0 0.00 0.00 0.00 86 1006.8
20260507003732 28 124 4.8 8.0 0.00 0.00 0.00 86 1006.8
20260507003631 28 120 3.2 8.0 0.00 0.00 0.00 86 1006.8
20260507003530 28 151 1.6 8.0 0.00 0.00 0.00 86 1006.8
20260507003431 28 97 3.2 8.0 0.00 0.00 0.00 86 1006.8
20260507003331 28 104 3.2 8.0 0.00 0.00 0.00 86 1006.8
20260507003231 28 102 3.2 8.0 0.00 0.00 0.00 86 1006.8
20260507003133 28 100 4.8 8.0 0.00 0.00 0.00 86 1006.8
20260507003032 28 78 4.8 8.0 0.00 0.00 0.00 86 1006.7
20260507002929 28 76 1.6 8.0 0.00 0.00 0.00 86 1006.7
20260507002828 28 68 0.0 8.0 0.00 0.00 0.00 86 1006.7
20260507002723 27 59 0.0 8.0 0.00 0.00 0.00 86 1006.7
20260507002621 27 30 1.6 8.0 0.00 0.00 0.00 86 1006.8
20260507002520 27 30 4.8 8.0 0.00 0.00 0.00 86 1006.7
20260507002416 27 48 4.8 8.0 0.00 0.00 0.00 86 1006.7
20260507002315 27 48 3.2 8.0 0.00 0.00 0.00 86 1006.7
20260507002215 27 31 0.0 0.0 0.00 0.00 0.00 86 1006.7
20260507002112 27 76 0.0 1.6 0.00 0.00 0.00 86 1006.7
20260507002011 27 76 0.0 1.6 0.00 0.00 0.00 86 1006.7
20260507001909 27 76 0.0 3.2 0.00 0.00 0.00 86 1006.8
20260507001807 27 76 0.0 3.2 0.00 0.00 0.00 86 1006.7
20260507001706 27 86 0.0 6.4 0.00 0.00 0.00 86 1006.7
20260507001604 27 86 0.0 8.0 0.00 0.00 0.00 86 1006.7
20260507001505 27 86 0.0 8.0 0.00 0.00 0.00 86 1006.7
20260507001404 28 86 0.0 8.0 0.00 0.00 0.00 86 1006.7
20260507001302 28 86 0.0 8.0 0.00 0.00 0.00 86 1006.6
20260507001203 28 86 0.0 8.0 0.00 0.00 0.00 85 1006.6
20260507001102 28 83 1.6 8.0 0.00 0.00 0.00 85 1006.6
20260507001002 28 79 1.6 8.0 0.00 0.00 0.00 85 1006.6
20260507000902 28 79 3.2 8.0 0.00 0.00 0.00 85 1006.6
20260507000804 28 80 4.8 8.0 0.00 0.00 0.00 85 1006.7
20260507000703 28 76 4.8 8.0 0.00 0.00 0.00 85 1006.7
20260507000602 28 94 3.2 8.0 0.00 0.00 0.00 84 1006.6
20260507000503 28 44 3.2 8.0 0.00 0.00 0.00 84 1006.5
20260507000402 28 25 4.8 8.0 0.00 0.00 0.00 83 1006.4
20260507000306 28 31 3.2 8.0 0.00 0.00 0.00 83 1006.4
20260507000204 28 0 3.2 8.0 0.00 0.00 0.00 83 1006.5
20260507000002 28 0 4.8 8.0 0.00 0.00 0.00 82 1006.6
20260506235903 29 8 4.8 14.5 0.00 0.00 0.00 82 1006.6
20260506235804 29 4 3.2 14.5 0.00 0.00 0.00 81 1006.6
20260506235703 29 327 1.6 14.5 0.00 0.00 0.00 81 1006.6
20260506235603 29 279 1.6 14.5 0.00 0.00 0.00 81 1006.6
20260506235502 29 279 1.6 14.5 0.00 0.00 0.00 81 1006.6
20260506235402 29 92 0.0 14.5 0.00 0.00 0.00 81 1006.5
20260506235306 29 83 1.6 14.5 0.00 0.00 0.00 81 1006.4
20260506235201 29 83 3.2 16.1 0.00 0.00 0.00 80 1006.4
20260506235103 29 178 6.4 16.1 0.00 0.00 0.00 80 1006.4
20260506235003 29 189 8.0 16.1 0.00 0.00 0.00 81 1006.5
20260506234904 29 190 6.4 16.1 0.00 0.00 0.00 80 1006.4
20260506234803 29 166 6.4 16.1 0.00 0.00 0.00 80 1006.5
20260506234703 29 228 4.8 16.1 0.00 0.00 0.00 81 1006.5
20260506234602 29 185 6.4 16.1 0.00 0.00 0.00 80 1006.5
20260506234502 29 197 8.0 16.1 0.00 0.00 0.00 80 1006.5
20260506234403 29 200 9.7 16.1 0.00 0.00 0.00 80 1006.4
20260506234301 29 142 6.4 16.1 0.00 0.00 0.00 80 1006.4
20260506234201 29 164 4.8 16.1 0.00 0.00 0.00 80 1006.4
20260506234103 29 200 6.4 16.1 0.00 0.00 0.00 80 1006.3
20260506234003 29 157 8.0 16.1 0.00 0.00 0.00 80 1006.4
20260506233902 29 227 6.4 16.1 0.00 0.00 0.00 80 1006.4
20260506233802 29 161 8.0 16.1 0.00 0.00 0.00 80 1006.4
20260506233703 29 172 8.0 16.1 0.00 0.00 0.00 80 1006.5
20260506233602 29 188 6.4 14.5 0.00 0.00 0.00 80 1006.4
20260506233502 29 206 6.4 14.5 0.00 0.00 0.00 80 1006.4
20260506233403 29 196 6.4 14.5 0.00 0.00 0.00 80 1006.5
20260506233302 29 200 6.4 16.1 0.00 0.00 0.00 80 1006.4
20260506233201 29 69 6.4 16.1 0.00 0.00 0.00 80 1006.4
20260506233104 29 197 8.0 17.7 0.00 0.00 0.00 80 1006.4
20260506233004 29 188 6.4 17.7 0.00 0.00 0.00 80 1006.3
20260506232902 29 154 4.8 17.7 0.00 0.00 0.00 80 1006.3
20260506232802 29 159 4.8 17.7 0.00 0.00 0.00 80 1006.2
20260506232704 29 135 6.4 17.7 0.00 0.00 0.00 80 1006.2
20260506232603 29 173 6.4 17.7 0.00 0.00 0.00 80 1006.2
20260506232503 29 155 8.0 17.7 0.00 0.00 0.00 80 1006.2
20260506232403 29 161 8.0 17.7 0.00 0.00 0.00 80 1006.2
20260506232306 29 176 9.7 17.7 0.00 0.00 0.00 79 1006.2
20260506232203 29 128 11.3 17.7 0.00 0.00 0.00 79 1006.2
20260506232102 30 203 9.7 17.7 0.00 0.00 0.00 79 1006.2
20260506232004 30 188 9.7 17.7 0.00 0.00 0.00 79 1006.2
20260506231902 30 166 9.7 16.1 0.00 0.00 0.00 79 1006.3
20260506231803 30 189 6.4 16.1 0.00 0.00 0.00 79 1006.2
20260506231704 30 197 6.4 16.1 0.00 0.00 0.00 79 1006.2
20260506231602 30 144 8.0 16.1 0.00 0.00 0.00 79 1006.3
20260506231504 30 168 8.0 16.1 0.00 0.00 0.00 79 1006.1
20260506231402 30 210 6.4 11.3 0.00 0.00 0.00 79 1006.2
20260506231302 30 154 6.4 11.3 0.00 0.00 0.00 78 1006.2
20260506231202 30 193 4.8 11.3 0.00 0.00 0.00 78 1006.2
20260506231102 30 140 3.2 11.3 0.00 0.00 0.00 78 1006.2
20260506231004 30 173 6.4 11.3 0.00 0.00 0.00 78 1006.2
20260506230903 30 130 8.0 11.3 0.00 0.00 0.00 78 1006.1
20260506230804 30 188 4.8 11.3 0.00 0.00 0.00 78 1006.1
20260506230702 30 192 3.2 9.7 0.00 0.00 0.00 78 1006.1
20260506230602 30 173 3.2 14.5 0.00 0.00 0.00 78 1006.1
20260506230502 30 107 4.8 14.5 0.00 0.00 0.00 78 1006.1
20260506230403 30 188 4.8 16.1 0.00 0.00 0.00 77 1006.1
20260506230302 30 182 6.4 16.1 0.00 0.00 0.00 77 1006.1
20260506230202 30 202 4.8 16.1 0.00 0.00 0.00 77 1006.1
20260506230103 30 214 4.8 16.1 0.00 0.00 0.00 77 1006.2
20260506230003 30 110 6.4 16.1 0.00 0.00 0.00 77 1006.2
20260506225902 30 188 6.4 16.1 0.00 0.00 0.00 77 1006.2
20260506225801 30 199 8.0 16.1 0.00 0.00 0.00 76 1006.2
20260506225702 30 200 8.0 16.1 0.00 0.00 0.00 77 1006.1
20260506225603 30 99 8.0 16.1 0.00 0.00 0.00 76 1006.2
20260506225502 30 175 6.4 16.1 0.00 0.00 0.00 77 1006.1
20260506225402 30 193 6.4 16.1 0.00 0.00 0.00 77 1006.1
20260506225305 30 130 6.4 16.1 0.00 0.00 0.00 77 1006.1
20260506225202 30 106 4.8 16.1 0.00 0.00 0.00 77 1006.1
20260506225102 30 111 4.8 16.1 0.00 0.00 0.00 77 1006.2
20260506225004 30 145 6.4 16.1 0.00 0.00 0.00 77 1006.2
20260506224902 30 165 6.4 17.7 0.00 0.00 0.00 77 1006.2
20260506224802 30 128 6.4 17.7 0.00 0.00 0.00 78 1006.2
20260506224703 30 185 8.0 17.7 0.00 0.00 0.00 77 1006.2
20260506224604 30 169 9.7 17.7 0.00 0.00 0.00 77 1006.1
20260506224503 30 185 9.7 17.7 0.00 0.00 0.00 77 1006.2
20260506224402 30 210 9.7 17.7 0.00 0.00 0.00 77 1006.1
20260506224302 30 210 9.7 17.7 0.00 0.00 0.00 77 1006.2
20260506224202 30 212 9.7 17.7 0.00 0.00 0.00 77 1006.1
20260506224102 30 192 9.7 17.7 0.00 0.00 0.00 76 1006.1
20260506224003 30 230 9.7 17.7 0.00 0.00 0.00 76 1006.1
20260506223904 30 183 9.7 17.7 0.00 0.00 0.00 76 1006.2
20260506223802 30 193 8.0 17.7 0.00 0.00 0.00 77 1006.1
20260506223703 30 203 9.7 17.7 0.00 0.00 0.00 77 1006.1
20260506223604 30 172 9.7 17.7 0.00 0.00 0.00 78 1006.1
20260506223503 30 188 8.0 20.9 0.00 0.00 0.00 78 1006.1
20260506223402 30 189 6.4 20.9 0.00 0.00 0.00 78 1006.2
20260506223302 30 100 8.0 20.9 0.00 0.00 0.00 78 1006.1
20260506223202 30 219 8.0 20.9 0.00 0.00 0.00 79 1006.2
20260506223102 30 171 4.8 20.9 0.00 0.00 0.00 79 1006.1
20260506223002 30 134 6.4 20.9 0.00 0.00 0.00 79 1006.1
20260506222905 30 179 8.0 20.9 0.00 0.00 0.00 79 1006.1
20260506222802 30 131 6.4 20.9 0.00 0.00 0.00 79 1006.2
20260506222703 30 188 8.0 20.9 0.00 0.00 0.00 79 1006.1
20260506222602 30 124 9.7 20.9 0.00 0.00 0.00 79 1006.1
20260506222503 30 166 8.0 16.1 0.00 0.00 0.00 79 1006.1
20260506222402 30 250 6.4 16.1 0.00 0.00 0.00 79 1006.1
20260506222301 30 182 4.8 16.1 0.00 0.00 0.00 79 1006.0
20260506222202 30 134 4.8 16.1 0.00 0.00 0.00 79 1006.0
20260506222102 30 195 6.4 16.1 0.00 0.00 0.00 79 1006.0
20260506222003 30 128 8.0 16.1 0.00 0.00 0.00 79 1006.1
20260506221903 30 164 8.0 16.1 0.00 0.00 0.00 79 1006.0
20260506221802 30 130 6.4 16.1 0.00 0.00 0.00 79 1006.1
20260506221703 30 83 6.4 17.7 0.00 0.00 0.00 79 1006.0
20260506221602 30 80 8.0 17.7 0.00 0.00 0.00 78 1006.0
20260506221505 30 162 8.0 17.7 0.00 0.00 0.00 78 1006.1
20260506221401 30 162 6.4 17.7 0.00 0.00 0.00 79 1006.0
20260506221302 30 162 6.4 17.7 0.00 0.00 0.00 79 1006.0
20260506221203 30 125 4.8 17.7 0.00 0.00 0.00 79 1006.0
20260506221103 30 159 6.4 17.7 0.00 0.00 0.00 79 1006.0
20260506221004 30 175 9.7 17.7 0.00 0.00 0.00 79 1005.9
20260506220904 30 165 9.7 17.7 0.00 0.00 0.00 78 1005.9
20260506220802 30 144 8.0 17.7 0.00 0.00 0.00 78 1006.0
20260506220702 30 116 4.8 14.5 0.00 0.00 0.00 78 1005.9
20260506220602 30 125 6.4 17.7 0.00 0.00 0.00 78 1006.0
20260506220503 30 173 9.7 17.7 0.00 0.00 0.00 78 1006.0
20260506220402 30 172 8.0 17.7 0.00 0.00 0.00 78 1006.0
20260506220303 30 157 6.4 17.7 0.00 0.00 0.00 78 1006.0
20260506220204 30 149 8.0 17.7 0.00 0.00 0.00 78 1006.0
20260506220002 30 118 9.7 17.7 0.00 0.00 0.00 77 1006.0
20260506215902 30 118 8.0 17.7 0.00 0.00 0.00 77 1005.9
20260506215803 30 199 8.0 17.7 0.00 0.00 0.00 77 1006.0
20260506215702 30 140 6.4 17.7 0.00 0.00 0.00 76 1006.0
20260506215602 30 189 4.8 20.9 0.00 0.00 0.00 76 1005.9
20260506215504 30 166 8.0 20.9 0.00 0.00 0.00 76 1005.9
20260506215402 30 189 8.0 20.9 0.00 0.00 0.00 76 1006.0
20260506215301 30 189 6.4 20.9 0.00 0.00 0.00 76 1006.0
20260506215201 30 179 6.4 20.9 0.00 0.00 0.00 76 1005.9
20260506215103 30 154 6.4 20.9 0.00 0.00 0.00 76 1005.9
20260506215002 30 240 6.4 20.9 0.00 0.00 0.00 76 1006.0
20260506214902 30 189 6.4 20.9 0.00 0.00 0.00 76 1006.0
20260506214804 30 195 9.7 20.9 0.00 0.00 0.00 76 1005.9
20260506214702 30 203 14.5 20.9 0.00 0.00 0.00 76 1005.9
20260506214603 30 195 11.3 19.3 0.00 0.00 0.00 76 1006.0
20260506214503 30 212 9.7 16.1 0.00 0.00 0.00 76 1006.0
20260506214404 30 197 9.7 16.1 0.00 0.00 0.00 76 1006.0
20260506214301 30 213 11.3 16.1 0.00 0.00 0.00 76 1006.0
20260506214202 30 227 8.0 16.1 0.00 0.00 0.00 76 1006.0
20260506214103 30 199 6.4 16.1 0.00 0.00 0.00 77 1006.0
20260506214002 30 227 8.0 16.1 0.00 0.00 0.00 77 1006.0
20260506213902 30 241 9.7 16.1 0.00 0.00 0.00 76 1006.0
20260506213803 30 250 9.7 16.1 0.00 0.00 0.00 76 1006.0
20260506213702 30 240 9.7 16.1 0.00 0.00 0.00 76 1006.0
20260506213602 30 195 8.0 16.1 0.00 0.00 0.00 77 1006.0
20260506213502 30 175 9.7 16.1 0.00 0.00 0.00 77 1005.9
20260506213402 30 176 8.0 16.1 0.00 0.00 0.00 77 1005.9
20260506213302 30 241 6.4 19.3 0.00 0.00 0.00 77 1005.9
20260506213202 30 192 6.4 19.3 0.00 0.00 0.00 77 1005.9
20260506213103 30 169 6.4 19.3 0.00 0.00 0.00 77 1005.9
20260506213004 30 131 4.8 19.3 0.00 0.00 0.00 77 1006.0
20260506212901 30 80 6.4 19.3 0.00 0.00 0.00 77 1006.0
20260506212803 30 186 9.7 19.3 0.00 0.00 0.00 77 1006.0
20260506212704 30 193 9.7 19.3 0.00 0.00 0.00 76 1006.0
20260506212601 30 224 9.7 19.3 0.00 0.00 0.00 76 1006.1
20260506212502 30 217 9.7 19.3 0.00 0.00 0.00 75 1006.2
20260506212403 30 182 9.7 19.3 0.00 0.00 0.00 76 1006.1
20260506212305 31 173 8.0 19.3 0.00 0.00 0.00 76 1006.2
20260506212202 31 173 6.4 11.3 0.00 0.00 0.00 76 1006.2
20260506212103 31 175 6.4 11.3 0.00 0.00 0.00 77 1006.3
20260506212003 31 186 8.0 16.1 0.00 0.00 0.00 77 1006.2
20260506211901 31 173 6.4 16.1 0.00 0.00 0.00 77 1006.2
20260506211802 30 159 6.4 17.7 0.00 0.00 0.00 78 1006.1
20260506211703 30 135 6.4 17.7 0.00 0.00 0.00 78 1006.2
20260506211602 30 149 6.4 19.3 0.00 0.00 0.00 78 1006.1
20260506211502 30 207 4.8 19.3 0.00 0.00 0.00 78 1006.1
20260506211403 30 51 6.4 19.3 0.00 0.00 0.00 78 1006.2
20260506211302 30 120 6.4 19.3 0.00 0.00 0.00 78 1006.2
20260506211202 30 133 6.4 19.3 0.00 0.00 0.00 77 1006.2
20260506211102 30 138 9.7 19.3 0.00 0.00 0.00 77 1006.2
20260506211004 30 148 9.7 19.3 0.00 0.00 0.00 77 1006.3
20260506210902 30 128 9.7 19.3 0.00 0.00 0.00 76 1006.2
20260506210802 30 85 9.7 19.3 0.00 0.00 0.00 76 1006.2
20260506210703 31 182 9.7 19.3 0.00 0.00 0.00 76 1006.3
20260506210603 31 157 8.0 19.3 0.00 0.00 0.00 76 1006.3
20260506210503 31 227 8.0 19.3 0.00 0.00 0.00 76 1006.2
20260506210403 31 197 6.4 19.3 0.00 0.00 0.00 76 1006.3
20260506210304 31 233 8.0 19.3 0.00 0.00 0.00 76 1006.2
20260506210202 31 233 6.4 19.3 0.00 0.00 0.00 76 1006.2
20260506210004 30 85 8.0 19.3 0.00 0.00 0.00 76 1006.3
20260506205902 30 135 8.0 19.3 0.00 0.00 0.00 76 1006.3
20260506205802 30 254 8.0 17.7 0.00 0.00 0.00 76 1006.3
20260506205703 30 188 9.7 17.7 0.00 0.00 0.00 76 1006.3
20260506205602 31 149 8.0 16.1 0.00 0.00 0.00 76 1006.4
20260506205502 30 202 8.0 16.1 0.00 0.00 0.00 76 1006.3
20260506205401 30 118 9.7 16.1 0.00 0.00 0.00 76 1006.3
20260506205306 31 116 9.7 14.5 0.00 0.00 0.00 76 1006.3
20260506205202 31 130 8.0 14.5 0.00 0.00 0.00 76 1006.3
20260506205102 31 131 6.4 14.5 0.00 0.00 0.00 76 1006.3
20260506205004 31 92 8.0 14.5 0.00 0.00 0.00 76 1006.3
20260506204903 31 176 8.0 14.5 0.00 0.00 0.00 76 1006.4
20260506204801 30 185 6.4 14.5 0.00 0.00 0.00 77 1006.4
20260506204703 30 176 6.4 14.5 0.00 0.00 0.00 77 1006.4
20260506204603 30 189 8.0 14.5 0.00 0.00 0.00 77 1006.4
20260506204503 30 238 8.0 14.5 0.00 0.00 0.00 78 1006.4
20260506204403 30 173 6.4 14.5 0.00 0.00 0.00 79 1006.4
20260506204303 30 125 6.4 14.5 0.00 0.00 0.00 79 1006.4
20260506204202 30 144 6.4 14.5 0.00 0.00 0.00 79 1006.5
20260506204102 30 161 6.4 14.5 0.00 0.00 0.00 79 1006.5
20260506204003 30 121 6.4 17.7 0.00 0.00 0.00 80 1006.6
20260506203903 29 255 6.4 17.7 0.00 0.00 0.00 80 1006.5
20260506203803 29 145 6.4 17.7 0.00 0.00 0.00 80 1006.5
20260506203702 29 127 8.0 17.7 0.00 0.00 0.00 80 1006.6
20260506203603 29 142 8.0 17.7 0.00 0.00 0.00 80 1006.5
20260506203502 29 135 6.4 17.7 0.00 0.00 0.00 81 1006.6
20260506203402 29 200 6.4 17.7 0.00 0.00 0.00 81 1006.5
20260506203303 29 141 6.4 17.7 0.00 0.00 0.00 81 1006.6
20260506203203 29 199 8.0 17.7 0.00 0.00 0.00 81 1006.6
20260506203102 29 175 6.4 17.7 0.00 0.00 0.00 81 1006.6
20260506203002 29 195 4.8 17.7 0.00 0.00 0.00 81 1006.6
20260506202903 29 164 4.8 19.3 0.00 0.00 0.00 81 1006.6
20260506202803 28 171 4.8 19.3 0.00 0.00 0.00 81 1006.7
20260506202702 28 179 4.8 19.3 0.00 0.00 0.00 81 1006.7
20260506202603 28 248 3.2 19.3 0.00 0.00 0.00 81 1006.7
20260506202502 28 169 6.4 19.3 0.00 0.00 0.00 81 1006.7
20260506202402 28 154 8.0 19.3 0.00 0.00 0.00 81 1006.7
20260506202306 28 147 6.4 19.3 0.00 0.00 0.00 81 1006.7
20260506202202 28 102 6.4 19.3 0.00 0.00 0.00 80 1006.6
20260506202103 28 271 9.7 19.3 0.00 0.00 0.00 80 1006.7
20260506202002 29 151 11.3 19.3 0.00 0.00 0.00 80 1006.7
20260506201902 29 168 9.7 19.3 0.00 0.00 0.00 80 1006.6
20260506201801 29 186 6.4 17.7 0.00 0.00 0.00 79 1006.7
20260506201702 29 131 9.7 17.7 0.00 0.00 0.00 79 1006.7
20260506201604 29 171 9.7 17.7 0.00 0.00 0.00 79 1006.7
20260506201503 29 135 9.7 17.7 0.00 0.00 0.00 79 1006.8
20260506201403 29 158 8.0 17.7 0.00 0.00 0.00 79 1006.7
20260506201302 29 78 6.4 17.7 0.00 0.00 0.00 81 1006.7
20260506201203 29 61 6.4 17.7 0.00 0.00 0.00 81 1006.7
20260506201102 29 89 6.4 17.7 0.00 0.00 0.00 81 1006.7
20260506201001 29 152 6.4 17.7 0.00 0.00 0.00 80 1006.7
20260506200902 30 116 8.0 17.7 0.00 0.00 0.00 79 1006.7
20260506200802 30 107 11.3 17.7 0.00 0.00 0.00 78 1006.7
20260506200701 30 104 9.7 17.7 0.00 0.00 0.00 77 1006.7
20260506200558 30 106 6.4 17.7 0.00 0.00 0.00 76 1006.7
20260506200457 30 195 6.4 17.7 0.00 0.00 0.00 76 1006.7
20260506200355 30 121 6.4 17.7 0.00 0.00 0.00 76 1006.7
20260506200254 30 171 4.8 16.1 0.00 0.00 0.00 76 1006.7
20260506200147 30 145 4.8 16.1 0.00 0.00 0.00 76 1006.6
20260506200048 30 109 4.8 16.1 0.00 0.00 0.00 76 1006.7
20260506195946 30 166 3.2 16.1 0.00 0.00 0.00 77 1006.7
20260506195845 30 118 6.4 16.1 0.00 0.00 0.00 76 1006.7
20260506195744 30 138 6.4 16.1 0.00 0.00 0.00 76 1006.8
20260506195645 30 172 6.4 16.1 0.00 0.00 0.00 76 1006.7
20260506195544 30 157 8.0 16.1 0.00 0.00 0.00 76 1006.7
20260506195444 30 135 9.7 16.1 0.00 0.00 0.00 76 1006.8
20260506195346 30 200 8.0 16.1 0.00 0.00 0.00 76 1006.7
20260506195244 30 188 4.8 16.1 0.00 0.00 0.00 76 1006.8
20260506195144 30 192 6.4 16.1 0.00 0.00 0.00 76 1006.8
20260506195044 30 186 8.0 16.1 0.00 0.00 0.00 76 1006.8
20260506194946 30 124 8.0 16.1 0.00 0.00 0.00 76 1006.8
20260506194844 30 252 6.4 14.5 0.00 0.00 0.00 75 1006.9
20260506194744 30 193 6.4 14.5 0.00 0.00 0.00 75 1006.8
20260506194645 30 206 6.4 14.5 0.00 0.00 0.00 75 1006.9
20260506194544 30 195 8.0 14.5 0.00 0.00 0.00 75 1006.9
20260506194444 30 189 8.0 14.5 0.00 0.00 0.00 76 1006.8
20260506194344 30 151 6.4 11.3 0.00 0.00 0.00 76 1006.8
20260506194246 30 196 4.8 11.3 0.00 0.00 0.00 76 1006.9
20260506194144 30 128 3.2 11.3 0.00 0.00 0.00 76 1006.9
20260506194044 30 161 3.2 11.3 0.00 0.00 0.00 77 1006.9
20260506193946 30 186 3.2 11.3 0.00 0.00 0.00 77 1007.0
20260506193845 30 116 3.2 11.3 0.00 0.00 0.00 77 1006.9
20260506193745 30 75 3.2 11.3 0.00 0.00 0.00 77 1007.0
20260506193644 30 149 3.2 11.3 0.00 0.00 0.00 77 1006.9
20260506193546 30 141 4.8 16.1 0.00 0.00 0.00 76 1006.9
20260506193444 30 131 4.8 17.7 0.00 0.00 0.00 76 1006.9
20260506193343 30 158 6.4 17.7 0.00 0.00 0.00 76 1006.9
20260506193244 30 161 4.8 17.7 0.00 0.00 0.00 76 1007.0
20260506193143 30 161 4.8 17.7 0.00 0.00 0.00 76 1007.0
20260506193043 30 127 8.0 17.7 0.00 0.00 0.00 76 1007.0
20260506192946 30 234 8.0 17.7 0.00 0.00 0.00 77 1007.0
20260506192845 30 180 8.0 17.7 0.00 0.00 0.00 76 1007.0
20260506192744 30 221 8.0 17.7 0.00 0.00 0.00 76 1007.0
20260506192644 30 175 8.0 17.7 0.00 0.00 0.00 76 1007.0
20260506192545 30 164 4.8 17.7 0.00 0.00 0.00 77 1007.0
20260506192445 30 45 3.2 9.7 0.00 0.00 0.00 79 1007.0
20260506192344 30 202 3.2 9.7 0.00 0.00 0.00 79 1007.1
20260506192243 29 120 3.2 9.7 0.00 0.00 0.00 79 1007.1
20260506192218 29 175 3.2 9.7 0.00 0.00 0.00 79 1007.1
20260506192043 29 107 4.8 9.7 0.00 0.00 0.00 79 1007.1
20260506192014 29 107 4.8 9.7 0.00 0.00 0.00 78 1007.0
20260506191844 29 114 4.8 9.7 0.00 0.00 0.00 79 1007.1
20260506191744 29 120 6.4 9.7 0.00 0.00 0.00 79 1007.1
20260506191643 29 200 8.0 9.7 0.00 0.00 0.00 79 1007.1
20260506191544 29 188 8.0 9.7 0.00 0.00 0.00 79 1007.2
20260506191445 29 195 6.4 9.7 0.00 0.00 0.00 79 1007.2
20260506191344 29 235 3.2 9.7 0.00 0.00 0.00 79 1007.2
20260506191245 29 123 3.2 8.0 0.00 0.00 0.00 80 1007.3
20260506191144 29 158 1.6 8.0 0.00 0.00 0.00 80 1007.3
20260506191044 29 47 1.6 8.0 0.00 0.00 0.00 80 1007.3
20260506190943 29 142 4.8 8.0 0.00 0.00 0.00 81 1007.4
20260506190845 29 106 4.8 8.0 0.00 0.00 0.00 81 1007.4
20260506190743 29 89 4.8 8.0 0.00 0.00 0.00 80 1007.4
20260506190643 29 142 4.8 8.0 0.00 0.00 0.00 80 1007.4
20260506190541 29 111 3.2 8.0 0.00 0.00 0.00 80 1007.3
20260506190441 29 87 3.2 8.0 0.00 0.00 0.00 80 1007.3
20260506190339 29 111 3.2 8.0 0.00 0.00 0.00 80 1007.3
20260506190237 29 140 4.8 8.0 0.00 0.00 0.00 79 1007.3
20260506190138 29 147 4.8 8.0 0.00 0.00 0.00 79 1007.4
20260506190036 29 121 4.8 8.0 0.00 0.00 0.00 79 1007.4
20260506185933 30 154 4.8 9.7 0.00 0.00 0.00 78 1007.4
20260506185831 30 306 3.2 9.7 0.00 0.00 0.00 77 1007.4
20260506185731 30 245 3.2 9.7 0.00 0.00 0.00 77 1007.4
20260506185633 30 209 1.6 9.7 0.00 0.00 0.00 77 1007.4
20260506185531 30 173 1.6 9.7 0.00 0.00 0.00 77 1007.5
20260506185432 30 127 1.6 9.7 0.00 0.00 0.00 77 1007.5
20260506185332 30 110 1.6 9.7 0.00 0.00 0.00 77 1007.4
20260506185231 30 99 1.6 9.7 0.00 0.00 0.00 77 1007.5
20260506185131 30 99 3.2 9.7 0.00 0.00 0.00 77 1007.5
20260506185031 30 100 6.4 9.7 0.00 0.00 0.00 77 1007.5
20260506184931 30 82 4.8 9.7 0.00 0.00 0.00 77 1007.5
20260506184832 30 59 3.2 9.7 0.00 0.00 0.00 78 1007.5
20260506184731 30 255 4.8 9.7 0.00 0.00 0.00 77 1007.5
20260506184631 30 254 4.8 9.7 0.00 0.00 0.00 77 1007.5
20260506184532 30 264 1.6 9.7 0.00 0.00 0.00 78 1007.5
20260506184430 30 93 1.6 9.7 0.00 0.00 0.00 79 1007.5
20260506184331 30 93 4.8 9.7 0.00 0.00 0.00 79 1007.5
20260506184233 29 94 6.4 9.7 0.00 0.00 0.00 79 1007.5
20260506184130 29 100 6.4 9.7 0.00 0.00 0.00 79 1007.5
20260506184028 29 118 4.8 9.7 0.00 0.00 0.00 79 1007.5
20260506183927 30 133 3.2 8.0 0.00 0.00 0.00 79 1007.6
20260506183826 30 165 3.2 8.0 0.00 0.00 0.00 79 1007.6
20260506183725 30 158 4.8 8.0 0.00 0.00 0.00 79 1007.6
20260506183622 30 168 4.8 8.0 0.00 0.00 0.00 79 1007.6
20260506183516 30 92 4.8 8.0 0.00 0.00 0.00 80 1007.6
20260506183415 29 82 6.4 8.0 0.00 0.00 0.00 79 1007.6
20260506183313 30 93 6.4 8.0 0.00 0.00 0.00 79 1007.7
20260506183211 30 152 4.8 8.0 0.00 0.00 0.00 79 1007.7
20260506183111 30 202 3.2 6.4 0.00 0.00 0.00 79 1007.7
20260506183008 29 102 3.2 6.4 0.00 0.00 0.00 81 1007.8
20260506182907 29 169 3.2 6.4 0.00 0.00 0.00 80 1007.8
20260506182803 29 85 0.0 6.4 0.00 0.00 0.00 80 1007.8
20260506182703 29 168 1.6 6.4 0.00 0.00 0.00 81 1007.8
20260506182603 29 169 3.2 6.4 0.00 0.00 0.00 81 1007.8
20260506182502 29 169 3.2 8.0 0.00 0.00 0.00 81 1007.9
20260506182402 28 220 1.6 8.0 0.00 0.00 0.00 82 1007.9
20260506182306 28 217 1.6 8.0 0.00 0.00 0.00 82 1007.9
20260506182203 28 118 3.2 8.0 0.00 0.00 0.00 82 1007.9
20260506182103 28 99 3.2 8.0 0.00 0.00 0.00 82 1007.9
20260506182003 28 190 1.6 8.0 0.00 0.00 0.00 82 1008.0
20260506181903 28 118 1.6 8.0 0.00 0.00 0.00 82 1008.0
20260506181802 28 118 1.6 8.0 0.00 0.00 0.00 81 1008.0
20260506181703 28 117 3.2 8.0 0.00 0.00 0.00 82 1008.0
20260506181602 28 113 3.2 8.0 0.00 0.00 0.00 82 1008.1
20260506181502 28 130 4.8 6.4 0.00 0.00 0.00 83 1008.1
20260506181402 28 104 3.2 6.4 0.00 0.00 0.00 82 1008.1
20260506181304 28 140 1.6 6.4 0.00 0.00 0.00 83 1008.2
20260506181203 28 200 1.6 6.4 0.00 0.00 0.00 84 1008.2
20260506181100 28 149 1.6 6.4 0.00 0.00 0.00 84 1008.2
20260506181000 28 116 1.6 6.4 0.00 0.00 0.00 84 1008.2
20260506180857 28 111 3.2 6.4 0.00 0.00 0.00 85 1008.2
20260506180756 28 106 3.2 6.4 0.00 0.00 0.00 85 1008.3
20260506180654 28 66 1.6 4.8 0.00 0.00 0.00 86 1008.3
20260506180552 27 134 0.0 4.8 0.00 0.00 0.00 86 1008.3
20260506180450 27 134 0.0 4.8 0.00 0.00 0.00 86 1008.3
20260506180351 27 134 1.6 6.4 0.00 0.00 0.00 87 1008.4
20260506180248 27 135 1.6 6.4 0.00 0.00 0.00 86 1008.4
20260506180147 27 135 0.0 6.4 0.00 0.00 0.00 87 1008.5
20260506180044 27 182 1.6 6.4 0.00 0.00 0.00 87 1008.5
20260506175942 27 183 1.6 6.4 0.00 0.00 0.00 86 1008.4
20260506175843 27 168 1.6 6.4 0.00 0.00 0.00 86 1008.5
20260506175742 27 130 0.0 6.4 0.00 0.00 0.00 87 1008.5
20260506175642 27 124 0.0 6.4 0.00 0.00 0.00 87 1008.6
20260506175541 27 123 3.2 6.4 0.00 0.00 0.00 87 1008.5
20260506175441 27 127 4.8 6.4 0.00 0.00 0.00 86 1008.6
20260506175341 27 154 4.8 9.7 0.00 0.00 0.00 86 1008.6
20260506175241 27 161 3.2 9.7 0.00 0.00 0.00 87 1008.6
20260506175142 27 165 1.6 9.7 0.00 0.00 0.00 87 1008.5
20260506175041 27 113 1.6 9.7 0.00 0.00 0.00 87 1008.5
20260506174941 27 114 3.2 9.7 0.00 0.00 0.00 86 1008.5
20260506174842 27 113 4.8 9.7 0.00 0.00 0.00 86 1008.6
20260506174742 27 140 3.2 9.7 0.00 0.00 0.00 86 1008.6
20260506174643 27 148 4.8 9.7 0.00 0.00 0.00 86 1008.7
20260506174542 27 186 6.4 9.7 0.00 0.00 0.00 86 1008.6
20260506174443 27 190 6.4 9.7 0.00 0.00 0.00 86 1008.7
20260506174341 27 169 4.8 9.7 0.00 0.00 0.00 85 1008.7
20260506174241 27 137 4.8 9.7 0.00 0.00 0.00 85 1008.7
20260506174142 27 154 3.2 9.7 0.00 0.00 0.00 85 1008.7
20260506174043 27 87 3.2 9.7 0.00 0.00 0.00 85 1008.7
20260506173943 27 86 3.2 9.7 0.00 0.00 0.00 85 1008.8
20260506173841 27 164 4.8 9.7 0.00 0.00 0.00 85 1008.7
20260506173743 27 172 3.2 11.3 0.00 0.00 0.00 85 1008.7
20260506173641 27 111 3.2 11.3 0.00 0.00 0.00 85 1008.7
20260506173541 27 117 3.2 11.3 0.00 0.00 0.00 84 1008.8
20260506173442 27 104 3.2 11.3 0.00 0.00 0.00 84 1008.7
20260506173341 27 120 4.8 11.3 0.00 0.00 0.00 84 1008.8
20260506173242 28 151 6.4 11.3 0.00 0.00 0.00 84 1008.8
20260506173142 28 102 6.4 11.3 0.00 0.00 0.00 84 1008.8
20260506173043 28 165 6.4 11.3 0.00 0.00 0.00 83 1008.8
20260506172941 28 133 6.4 11.3 0.00 0.00 0.00 83 1008.9
20260506172841 28 175 4.8 11.3 0.00 0.00 0.00 83 1008.9
20260506172743 28 120 4.8 9.7 0.00 0.00 0.00 83 1008.8
20260506172641 28 171 3.2 9.7 0.00 0.00 0.00 83 1008.9
20260506172540 28 114 3.2 8.0 0.00 0.00 0.00 83 1008.8
20260506172442 28 118 3.2 8.0 0.00 0.00 0.00 83 1008.8
20260506172341 28 128 1.6 8.0 0.00 0.00 0.00 83 1008.9
20260506172241 28 175 3.2 9.7 0.00 0.00 0.00 83 1008.8
20260506172140 28 228 1.6 11.3 0.00 0.00 0.00 83 1008.8
20260506172042 28 231 1.6 11.3 0.00 0.00 0.00 84 1008.9
20260506171941 28 271 1.6 11.3 0.00 0.00 0.00 84 1008.9
20260506171841 28 116 3.2 11.3 0.00 0.00 0.00 84 1008.9
20260506171741 28 104 4.8 14.5 0.00 0.00 0.00 84 1008.9
20260506171640 28 82 3.2 14.5 0.00 0.00 0.00 84 1008.9
20260506171540 28 172 3.2 14.5 0.00 0.00 0.00 85 1008.9
20260506171440 28 161 4.8 14.5 0.00 0.00 0.00 85 1008.9
20260506171341 28 118 6.4 14.5 0.00 0.00 0.00 84 1008.9
20260506171241 28 107 6.4 14.5 0.00 0.00 0.00 84 1009.0
20260506171140 28 85 3.2 14.5 0.00 0.00 0.00 85 1008.9
20260506171040 28 110 4.8 14.5 0.00 0.00 0.00 84 1009.0
20260506170941 28 195 6.4 14.5 0.00 0.00 0.00 85 1009.0
20260506170840 28 148 4.8 14.5 0.00 0.00 0.00 84 1009.0
20260506170741 28 147 4.8 11.3 0.00 0.00 0.00 84 1009.1
20260506170641 28 204 4.8 11.3 0.00 0.00 0.00 84 1009.0
20260506170541 28 0 3.2 11.3 0.00 0.00 0.00 85 1009.0
20260506170440 28 0 3.2 14.5 0.00 0.00 0.00 85 1009.0
20260506170342 27 0 4.8 14.5 0.00 0.00 0.00 85 1008.9
20260506170240 27 65 6.4 14.5 0.00 0.00 0.00 85 1008.9
20260506170141 27 107 6.4 14.5 0.00 0.00 0.00 85 1009.0
20260506170041 27 161 6.4 14.5 0.00 0.00 0.00 86 1009.0
20260506165937 27 109 6.4 14.5 0.00 0.00 0.00 86 1008.9
20260506165837 27 103 6.4 14.5 0.00 0.00 0.00 86 1008.9
20260506165734 27 151 6.4 14.5 0.00 0.00 0.00 86 1008.9
20260506165633 27 173 8.0 14.5 0.00 0.00 0.00 86 1008.9
20260506165531 27 142 8.0 14.5 0.00 0.00 0.00 86 1008.9
20260506165431 27 203 6.4 14.5 0.00 0.00 0.00 87 1008.9
20260506165334 27 107 6.4 14.5 0.00 0.00 0.00 87 1008.9
20260506165232 27 121 6.4 14.5 0.00 0.00 0.00 87 1008.9
20260506165132 27 135 4.8 14.5 0.00 0.00 0.00 87 1009.0
20260506165033 27 169 6.4 14.5 0.00 0.00 0.00 87 1009.0
20260506164932 27 100 9.7 14.5 0.00 0.00 0.00 87 1009.0
20260506164830 27 140 8.0 16.1 0.00 0.00 0.00 87 1008.9
20260506164730 27 158 6.4 16.1 0.00 0.00 0.00 87 1008.9
20260506164630 27 152 4.8 16.1 0.00 0.00 0.00 87 1008.9
20260506164531 27 110 3.2 16.1 0.00 0.00 0.00 87 1008.9
20260506164431 27 125 4.8 16.1 0.00 0.00 0.00 87 1008.9
20260506164330 27 134 4.8 19.3 0.00 0.00 0.00 87 1009.0
20260506164212 27 124 4.8 19.3 0.00 0.00 0.00 86 1009.0
20260506164111 27 109 6.4 19.3 0.00 0.00 0.00 86 1008.9
20260506164010 27 207 6.4 19.3 0.00 0.00 0.00 86 1009.0
20260506163907 27 165 8.0 19.3 0.00 0.00 0.00 85 1009.0
20260506163806 27 192 6.4 19.3 0.00 0.00 0.00 85 1008.9
20260506163704 27 164 6.4 19.3 0.00 0.00 0.00 85 1008.9
20260506163603 27 148 6.4 19.3 0.00 0.00 0.00 85 1009.0
20260506163502 27 197 8.0 19.3 0.00 0.00 0.00 85 1008.9
20260506163403 27 176 9.7 19.3 0.00 0.00 0.00 84 1008.9
20260506163303 27 190 8.0 14.5 0.00 0.00 0.00 84 1008.9
20260506163201 27 196 6.4 11.3 0.00 0.00 0.00 85 1008.8
20260506163101 27 179 4.8 11.3 0.00 0.00 0.00 85 1008.8
20260506163004 27 197 1.6 8.0 0.00 0.00 0.00 85 1008.7
20260506162902 27 164 1.6 8.0 0.00 0.00 0.00 85 1008.8
20260506162802 27 192 3.2 8.0 0.00 0.00 0.00 85 1008.8
20260506162704 27 155 3.2 8.0 0.00 0.00 0.00 85 1008.7
20260506162601 27 168 3.2 9.7 0.00 0.00 0.00 85 1008.7
20260506162502 27 148 4.8 9.7 0.00 0.00 0.00 85 1008.8
20260506162403 27 106 4.8 11.3 0.00 0.00 0.00 85 1008.8
20260506162306 27 180 4.8 11.3 0.00 0.00 0.00 85 1008.7
20260506162203 27 135 4.8 11.3 0.00 0.00 0.00 85 1008.7
20260506162104 27 135 4.8 11.3 0.00 0.00 0.00 85 1008.7
20260506162003 27 135 4.8 11.3 0.00 0.00 0.00 85 1008.7
20260506161902 27 135 4.8 11.3 0.00 0.00 0.00 85 1008.7
20260506161803 27 135 4.8 11.3 0.00 0.00 0.00 85 1008.7
20260506161703 27 99 6.4 11.3 0.00 0.00 0.00 85 1008.7
20260506161604 27 154 6.4 11.3 0.00 0.00 0.00 85 1008.5
20260506161503 27 152 6.4 11.3 0.00 0.00 0.00 85 1008.6
20260506161403 27 157 6.4 11.3 0.00 0.00 0.00 85 1008.5
20260506161303 27 168 6.4 11.3 0.00 0.00 0.00 85 1008.5
20260506161202 27 182 6.4 9.7 0.00 0.00 0.00 85 1008.5
20260506161102 27 131 4.8 9.7 0.00 0.00 0.00 85 1008.6
20260506161004 27 162 4.8 9.7 0.00 0.00 0.00 85 1008.6
20260506160903 27 173 3.2 9.7 0.00 0.00 0.00 85 1008.6
20260506160801 27 106 4.8 9.7 0.00 0.00 0.00 85 1008.6
20260506160702 27 131 3.2 9.7 0.00 0.00 0.00 86 1008.6
20260506160603 27 123 1.6 9.7 0.00 0.00 0.00 86 1008.6
20260506160504 27 97 0.0 9.7 0.00 0.00 0.00 86 1008.7
20260506160403 27 157 3.2 9.7 0.00 0.00 0.00 86 1008.7
20260506160303 27 157 4.8 9.7 0.00 0.00 0.00 86 1008.6
20260506160202 27 151 4.8 9.7 0.00 0.00 0.00 86 1008.7
20260506160103 27 178 6.4 9.7 0.00 0.00 0.00 86 1008.7
20260506160004 27 134 6.4 9.7 0.00 0.00 0.00 86 1008.6
20260506155903 27 110 6.4 9.7 0.00 0.00 0.00 86 1008.7
20260506155802 27 155 6.4 9.7 0.00 0.00 0.00 86 1008.7
20260506155702 27 138 4.8 9.7 0.00 0.00 0.00 86 1008.7
20260506155603 27 182 4.8 9.7 0.00 0.00 0.00 86 1008.7
20260506155502 27 178 4.8 9.7 0.00 0.00 0.00 86 1008.7
20260506155403 27 135 4.8 9.7 0.00 0.00 0.00 86 1008.6
20260506155306 27 120 4.8 9.7 0.00 0.00 0.00 86 1008.6
20260506155203 27 137 4.8 9.7 0.00 0.00 0.00 86 1008.6
20260506155103 27 162 3.2 9.7 0.00 0.00 0.00 86 1008.5
20260506155003 27 224 3.2 11.3 0.00 0.00 0.00 86 1008.6
20260506154902 27 125 3.2 11.3 0.00 0.00 0.00 86 1008.5
20260506154802 27 190 6.4 11.3 0.00 0.00 0.00 86 1008.6
20260506154702 27 165 6.4 11.3 0.00 0.00 0.00 86 1008.5
20260506154603 27 172 4.8 11.3 0.00 0.00 0.00 86 1008.6
20260506154503 27 154 3.2 11.3 0.00 0.00 0.00 86 1008.6
20260506154404 27 114 4.8 11.3 0.00 0.00 0.00 86 1008.6
20260506154303 27 154 6.4 11.3 0.00 0.00 0.00 86 1008.6
20260506154202 27 169 8.0 11.3 0.00 0.00 0.00 86 1008.5
20260506154102 27 120 6.4 11.3 0.00 0.00 0.00 86 1008.5
20260506154002 27 124 6.4 11.3 0.00 0.00 0.00 86 1008.6
20260506153903 27 147 8.0 11.3 0.00 0.00 0.00 86 1008.6
20260506153802 27 164 6.4 9.7 0.00 0.00 0.00 86 1008.5
20260506153703 27 113 4.8 9.7 0.00 0.00 0.00 86 1008.5
20260506153603 27 206 6.4 14.5 0.00 0.00 0.00 86 1008.5
20260506153502 27 189 6.4 14.5 0.00 0.00 0.00 86 1008.5
20260506153402 27 157 4.8 14.5 0.00 0.00 0.00 86 1008.5
20260506153302 27 178 4.8 14.5 0.00 0.00 0.00 86 1008.5
20260506153203 27 145 4.8 14.5 0.00 0.00 0.00 86 1008.5
20260506153103 27 127 3.2 14.5 0.00 0.00 0.00 86 1008.4
20260506153003 27 147 4.8 14.5 0.00 0.00 0.00 86 1008.4
20260506152903 27 142 8.0 14.5 0.00 0.00 0.00 86 1008.4
20260506152803 27 140 8.0 14.5 0.00 0.00 0.00 86 1008.4
20260506152702 27 172 6.4 14.5 0.00 0.00 0.00 86 1008.4
20260506152602 27 178 6.4 11.3 0.00 0.00 0.00 86 1008.4
20260506152505 27 121 6.4 11.3 0.00 0.00 0.00 86 1008.3
20260506152402 27 165 6.4 11.3 0.00 0.00 0.00 86 1008.4
20260506152305 27 138 3.2 16.1 0.00 0.00 0.00 86 1008.3
20260506152203 27 169 3.2 16.1 0.00 0.00 0.00 86 1008.4
20260506152103 27 171 4.8 16.1 0.00 0.00 0.00 86 1008.3
20260506152003 27 73 4.8 16.1 0.00 0.00 0.00 86 1008.2
20260506151903 27 118 3.2 16.1 0.00 0.00 0.00 86 1008.3
20260506151802 27 178 3.2 16.1 0.00 0.00 0.00 87 1008.3
20260506151702 27 113 4.8 16.1 0.00 0.00 0.00 86 1008.2
20260506151603 27 114 6.4 16.1 0.00 0.00 0.00 86 1008.1
20260506151504 27 97 8.0 16.1 0.00 0.00 0.00 86 1008.1
20260506151403 27 137 9.7 16.1 0.00 0.00 0.00 86 1008.0
20260506151303 27 113 8.0 14.5 0.00 0.00 0.00 86 1008.1
20260506151203 27 173 6.4 14.5 0.00 0.00 0.00 86 1008.1
20260506151103 27 148 4.8 11.3 0.00 0.00 0.00 86 1008.2
20260506151002 27 175 4.8 11.3 0.00 0.00 0.00 86 1008.1
20260506150901 27 197 4.8 11.3 0.00 0.00 0.00 87 1008.1
20260506150803 27 109 6.4 11.3 0.00 0.00 0.00 86 1008.2
20260506150703 27 123 8.0 11.3 0.00 0.00 0.00 87 1008.1
20260506150604 27 131 6.4 14.5 0.00 0.00 0.00 87 1008.1
20260506150504 27 100 6.4 14.5 0.00 0.00 0.00 86 1008.1
20260506150402 27 118 6.4 14.5 0.00 0.00 0.00 87 1008.1
20260506150304 27 69 6.4 14.5 0.00 0.00 0.00 86 1008.1
20260506150203 27 117 6.4 14.5 0.00 0.00 0.00 86 1008.1
20260506150002 27 120 4.8 14.5 0.00 0.00 0.00 87 1008.1
20260506145902 27 152 4.8 14.5 0.00 0.00 0.00 87 1008.1
20260506145801 27 176 6.4 14.5 0.00 0.00 0.00 86 1008.1
20260506145701 27 162 8.0 14.5 0.00 0.00 0.00 87 1008.1
20260506145603 27 195 6.4 9.7 0.00 0.00 0.00 87 1008.0
20260506145503 27 142 4.8 9.7 0.00 0.00 0.00 87 1008.0
20260506145403 27 164 4.8 9.7 0.00 0.00 0.00 87 1008.0
20260506145305 27 171 4.8 9.7 0.00 0.00 0.00 87 1007.9
20260506145204 27 203 3.2 9.7 0.00 0.00 0.00 88 1008.0
20260506145103 26 116 4.8 9.7 0.00 0.00 0.00 87 1007.9
20260506145003 26 135 6.4 9.7 0.00 0.00 0.00 87 1007.9
20260506144902 27 107 4.8 9.7 0.00 0.00 0.00 87 1007.9
20260506144804 27 113 4.8 9.7 0.00 0.00 0.00 87 1007.8
20260506144702 27 103 3.2 14.5 0.00 0.00 0.00 87 1007.8
20260506144602 27 103 3.2 14.5 0.00 0.00 0.00 87 1007.9
20260506144503 27 127 1.6 14.5 0.00 0.00 0.00 88 1007.8
20260506144402 27 124 3.2 14.5 0.00 0.00 0.00 88 1007.7
20260506144303 27 111 3.2 14.5 0.00 0.00 0.00 88 1007.7
20260506144202 26 138 4.8 14.5 0.00 0.00 0.00 88 1007.8
20260506144103 26 127 3.2 14.5 0.00 0.00 0.00 88 1007.6
20260506144003 26 131 3.2 14.5 0.00 0.00 0.00 88 1007.6
20260506143902 26 118 6.4 14.5 0.00 0.00 0.00 88 1007.7
20260506143803 26 145 6.4 14.5 0.00 0.00 0.00 88 1007.6
20260506143702 26 147 3.2 11.3 0.00 0.00 0.00 88 1007.7
20260506143602 26 111 3.2 11.3 0.00 0.00 0.00 88 1007.7
20260506143504 26 130 4.8 11.3 0.00 0.00 0.00 88 1007.7
20260506143403 26 148 6.4 11.3 0.00 0.00 0.00 88 1007.7
20260506143302 26 107 3.2 11.3 0.00 0.00 0.00 88 1007.7
20260506143202 26 116 3.2 11.3 0.00 0.00 0.00 88 1007.7
20260506143104 26 103 6.4 14.5 0.00 0.00 0.00 88 1007.7
20260506143004 26 113 6.4 14.5 0.00 0.00 0.00 89 1007.7
20260506142903 26 141 1.6 14.5 0.00 0.00 0.00 90 1007.6
20260506142803 26 141 1.6 14.5 0.00 0.00 0.00 90 1007.7
20260506142703 26 141 1.6 14.5 0.00 0.00 0.00 90 1007.6
20260506142603 26 141 1.6 14.5 0.00 0.00 0.00 90 1007.6
20260506142503 26 141 1.6 14.5 0.00 0.00 0.00 90 1007.6
20260506142403 26 124 3.2 14.5 0.00 0.00 0.00 90 1007.6
20260506142305 26 140 6.4 14.5 0.00 0.00 0.00 90 1007.6
20260506142201 26 117 6.4 14.5 0.00 0.00 0.00 91 1007.7
20260506142103 26 86 4.8 8.0 0.00 0.00 0.00 91 1007.7
20260506142003 26 104 4.8 8.0 0.00 0.00 0.00 91 1007.8
20260506141904 26 104 4.8 8.0 0.00 0.00 0.00 91 1007.7
20260506141803 26 104 4.8 8.0 0.00 0.00 0.00 91 1007.7
20260506141638 26 118 3.2 8.0 0.00 0.00 0.00 91 1007.8
20260506141537 26 114 3.2 6.4 0.00 0.00 0.00 91 1007.7
20260506141436 26 114 3.2 6.4 0.00 0.00 0.00 91 1007.8
20260506141337 26 114 3.2 6.4 0.00 0.00 0.00 91 1007.8
20260506141237 26 90 4.8 6.4 0.00 0.00 0.00 91 1007.8
20260506141138 26 90 4.8 8.0 0.00 0.00 0.00 91 1007.8
20260506141037 26 87 4.8 8.0 0.00 0.00 0.00 91 1007.8
20260506140938 26 99 3.2 8.0 0.00 0.00 0.00 92 1007.8
20260506140837 26 162 4.8 8.0 0.00 0.00 0.00 92 1007.9
20260506140737 26 93 4.8 8.0 0.00 0.00 0.00 92 1007.8
20260506140638 25 125 3.2 8.0 0.00 0.00 0.00 92 1007.8
20260506140537 25 154 3.2 8.0 0.00 0.00 0.00 92 1007.9
20260506140436 25 134 3.2 8.0 0.00 0.00 0.00 92 1007.8
20260506140337 25 109 4.8 8.0 0.00 0.00 0.00 92 1007.9
20260506140237 25 114 4.8 8.0 0.00 0.00 0.00 92 1007.8
20260506140137 25 137 4.8 8.0 0.00 0.00 0.00 92 1007.8
20260506140038 25 104 4.8 8.0 0.00 0.00 0.00 92 1007.8
20260506135938 25 103 4.8 8.0 0.00 0.00 0.00 92 1007.8
20260506135837 25 104 4.8 8.0 0.00 0.00 0.00 92 1007.8
20260506135736 25 103 4.8 8.0 0.00 0.00 0.00 93 1007.8
20260506135636 25 83 6.4 8.0 0.00 0.00 0.00 92 1007.8
20260506135538 25 114 4.8 8.0 0.00 0.00 0.00 93 1007.8
20260506135437 25 102 4.8 8.0 0.00 0.00 0.00 93 1007.8
20260506135336 25 100 4.8 9.7 0.00 0.00 0.00 93 1007.9
20260506135238 25 100 3.2 9.7 0.00 0.00 0.00 93 1007.8